Time,TemperatureF,DewpointF,PressureIn,WindDirection,WindDirectionDegrees,WindSpeedMPH,WindSpeedGustMPH,Humidity,HourlyPrecipIn,Conditions,Clouds,dailyrainin,SoftwareType,DateUTC
2013-01-05 00:00:00,30.1,19.4,29.99,SW,225,3.4,5.4,64,0.00,,,0.00,WUHU216HW,2013-01-05 05:00:00,
2013-01-05 00:02:00,30.3,19.6,29.99,WSW,248,3.4,5.4,64,0.00,,,0.00,WUHU216HW,2013-01-05 05:02:00,
2013-01-05 00:05:00,30.1,19.1,29.99,NW,315,4.5,8.9,63,0.00,,,0.00,WUHU216HW,2013-01-05 05:05:00,
2013-01-05 00:07:00,30.3,19.3,29.99,NW,315,4.9,8.9,63,0.00,,,0.00,WUHU216HW,2013-01-05 05:07:00,
2013-01-05 00:10:00,30.7,19.6,29.99,NNW,338,1.8,8.9,63,0.00,,,0.00,WUHU216HW,2013-01-05 05:10:00,
2013-01-05 00:12:00,30.7,19.6,29.99,NW,315,2.7,8.9,63,0.00,,,0.00,WUHU216HW,2013-01-05 05:12:00,
2013-01-05 00:15:00,30.7,19.3,30.00,NW,315,3.4,6.3,62,0.00,,,0.00,WUHU216HW,2013-01-05 05:15:00,
2013-01-05 00:16:00,30.7,19.3,30.00,NW,315,3.4,6.3,62,0.00,,,0.00,WUHU216HW,2013-01-05 05:16:00,
2013-01-05 00:17:00,30.7,19.3,30.00,WNW,293,3.4,6.3,62,0.00,,,0.00,WUHU216HW,2013-01-05 05:17:00,
2013-01-05 00:20:00,30.3,18.9,30.00,SSW,203,3.6,5.1,62,0.00,,,0.00,WUHU216HW,2013-01-05 05:20:00,
2013-01-05 00:21:00,30.3,18.9,30.00,SSW,203,3.6,5.1,62,0.00,,,0.00,WUHU216HW,2013-01-05 05:21:00,
2013-01-05 00:22:00,30.3,18.9,30.00,NW,315,4.5,5.1,62,0.00,,,0.00,WUHU216HW,2013-01-05 05:22:00,
2013-01-05 00:26:00,30.5,19.1,30.00,West,270,2.5,5.1,62,0.00,,,0.00,WUHU216HW,2013-01-05 05:26:00,
2013-01-05 00:27:00,30.7,19.3,30.00,West,270,2.0,5.1,62,0.00,,,0.00,WUHU216HW,2013-01-05 05:27:00,
2013-01-05 00:31:00,30.7,19.3,30.00,WNW,293,7.8,8.5,62,0.00,,,0.00,WUHU216HW,2013-01-05 05:31:00,
2013-01-05 00:32:00,30.7,19.3,30.00,WNW,293,5.4,8.5,62,0.00,,,0.00,WUHU216HW,2013-01-05 05:32:00,
2013-01-05 00:36:00,30.9,19.5,30.00,North,0,4.3,8.5,62,0.00,,,0.00,WUHU216HW,2013-01-05 05:36:00,
2013-01-05 00:37:00,30.9,19.5,30.00,WNW,293,2.2,8.5,62,0.00,,,0.00,WUHU216HW,2013-01-05 05:37:00,
2013-01-05 00:38:00,30.9,19.5,30.00,North,0,5.4,8.5,62,0.00,,,0.00,WUHU216HW,2013-01-05 05:38:00,
2013-01-05 00:41:00,30.9,19.1,30.00,WNW,293,3.4,6.7,61,0.00,,,0.00,WUHU216HW,2013-01-05 05:41:00,
2013-01-05 00:42:00,30.7,19.3,30.00,NW,315,4.0,6.7,62,0.00,,,0.00,WUHU216HW,2013-01-05 05:42:00,
2013-01-05 00:43:00,30.7,19.3,30.00,WSW,248,5.4,6.7,62,0.00,,,0.00,WUHU216HW,2013-01-05 05:43:00,
2013-01-05 00:46:00,30.9,19.1,30.00,SSW,203,14.8,14.8,61,0.00,,,0.00,WUHU216HW,2013-01-05 05:46:00,
2013-01-05 00:47:00,30.9,19.1,30.00,SSW,203,14.8,14.8,61,0.00,,,0.00,WUHU216HW,2013-01-05 05:47:00,
2013-01-05 00:48:00,30.9,19.1,30.00,West,270,5.4,14.8,61,0.00,,,0.00,WUHU216HW,2013-01-05 05:48:00,
2013-01-05 00:52:00,30.9,19.1,30.00,West,270,9.6,14.8,61,0.00,,,0.00,WUHU216HW,2013-01-05 05:52:00,
2013-01-05 00:53:00,30.9,18.7,30.00,WNW,293,4.7,14.8,60,0.00,,,0.00,WUHU216HW,2013-01-05 05:53:00,
2013-01-05 00:57:00,31.0,19.2,30.00,West,270,4.0,9.6,61,0.00,,,0.00,WUHU216HW,2013-01-05 05:57:00,
2013-01-05 00:58:00,30.9,19.1,30.00,WSW,248,8.5,9.6,61,0.00,,,0.00,WUHU216HW,2013-01-05 05:58:00,
2013-01-05 01:02:00,30.9,19.1,30.00,West,270,6.7,8.5,61,0.00,,,0.00,WUHU216HW,2013-01-05 06:02:00,
2013-01-05 01:03:00,30.9,19.1,30.00,WNW,293,2.2,8.5,61,0.00,,,0.00,WUHU216HW,2013-01-05 06:03:00,
2013-01-05 01:07:00,30.7,18.9,30.00,NW,315,5.6,8.5,61,0.00,,,0.00,WUHU216HW,2013-01-05 06:07:00,
2013-01-05 01:08:00,30.7,18.9,30.01,NNW,338,4.9,6.7,61,0.00,,,0.00,WUHU216HW,2013-01-05 06:08:00,
2013-01-05 01:12:00,31.0,18.8,30.01,West,270,14.5,14.5,60,0.00,,,0.00,WUHU216HW,2013-01-05 06:12:00,
2013-01-05 01:13:00,31.0,18.8,30.01,NW,315,6.9,14.5,60,0.00,,,0.00,WUHU216HW,2013-01-05 06:13:00,
2013-01-05 01:17:00,31.2,18.6,30.01,WNW,293,7.6,14.5,59,0.00,,,0.00,WUHU216HW,2013-01-05 06:17:00,
2013-01-05 01:18:00,31.2,18.6,30.01,NNW,338,6.5,14.5,59,0.00,,,0.00,WUHU216HW,2013-01-05 06:18:00,
2013-01-05 01:22:00,31.2,18.6,30.00,West,270,5.4,8.1,59,0.00,,,0.00,WUHU216HW,2013-01-05 06:22:00,
2013-01-05 01:23:00,31.2,18.6,30.00,WNW,293,5.1,8.1,59,0.00,,,0.00,WUHU216HW,2013-01-05 06:23:00,
2013-01-05 01:27:00,31.0,18.4,30.01,West,270,8.5,8.5,59,0.00,,,0.00,WUHU216HW,2013-01-05 06:27:00,
2013-01-05 01:28:00,31.0,18.4,30.01,NNW,338,6.9,8.5,59,0.00,,,0.00,WUHU216HW,2013-01-05 06:28:00,
2013-01-05 01:32:00,31.0,18.8,30.01,North,0,2.2,8.5,60,0.00,,,0.00,WUHU216HW,2013-01-05 06:32:00,
2013-01-05 01:33:00,31.0,18.8,30.01,North,0,2.2,8.5,60,0.00,,,0.00,WUHU216HW,2013-01-05 06:33:00,
2013-01-05 01:37:00,30.9,18.7,30.02,WNW,293,5.6,8.5,60,0.00,,,0.00,WUHU216HW,2013-01-05 06:37:00,
2013-01-05 01:38:00,30.9,18.7,30.02,WNW,293,5.6,8.5,60,0.00,,,0.00,WUHU216HW,2013-01-05 06:38:00,
2013-01-05 01:39:00,30.9,18.7,30.01,WNW,293,3.1,8.5,60,0.00,,,0.00,WUHU216HW,2013-01-05 06:39:00,
2013-01-05 01:43:00,30.9,18.3,30.02,South,180,2.7,8.5,59,0.00,,,0.00,WUHU216HW,2013-01-05 06:43:00,
2013-01-05 01:44:00,31.0,18.4,30.02,WSW,248,2.0,8.3,59,0.00,,,0.00,WUHU216HW,2013-01-05 06:44:00,
2013-01-05 01:48:00,31.0,18.4,30.02,North,0,3.4,10.5,59,0.00,,,0.00,WUHU216HW,2013-01-05 06:48:00,
2013-01-05 01:49:00,30.9,18.7,30.02,South,180,5.1,10.5,60,0.00,,,0.00,WUHU216HW,2013-01-05 06:49:00,
2013-01-05 01:53:00,30.7,18.5,30.02,NNW,338,0.4,10.5,60,0.00,,,0.00,WUHU216HW,2013-01-05 06:53:00,
2013-01-05 01:54:00,30.7,18.5,30.02,NNW,338,0.4,10.5,60,0.00,,,0.00,WUHU216HW,2013-01-05 06:54:00,
2013-01-05 01:58:00,30.5,18.3,30.02,WNW,293,4.0,4.7,60,0.00,,,0.00,WUHU216HW,2013-01-05 06:58:00,
2013-01-05 01:59:00,30.3,18.1,30.02,WSW,248,6.3,6.3,60,0.00,,,0.00,WUHU216HW,2013-01-05 06:59:00,
2013-01-05 02:03:00,30.3,18.1,30.02,WNW,293,4.3,7.8,60,0.00,,,0.00,WUHU216HW,2013-01-05 07:03:00,
2013-01-05 02:04:00,30.3,18.5,30.02,WNW,293,3.8,7.8,61,0.00,,,0.00,WUHU216HW,2013-01-05 07:04:00,
2013-01-05 02:08:00,30.5,18.3,30.02,North,0,1.6,9.2,60,0.00,,,0.00,WUHU216HW,2013-01-05 07:08:00,
2013-01-05 02:09:00,30.5,18.3,30.02,NNW,338,5.4,9.2,60,0.00,,,0.00,WUHU216HW,2013-01-05 07:09:00,
2013-01-05 02:14:00,30.7,18.5,30.03,West,270,4.3,10.3,60,0.00,,,0.00,WUHU216HW,2013-01-05 07:14:00,
2013-01-05 02:19:00,30.7,18.5,30.03,WNW,293,5.4,10.3,60,0.00,,,0.00,WUHU216HW,2013-01-05 07:19:00,
2013-01-05 02:24:00,30.7,18.5,30.03,WNW,293,5.1,10.3,60,0.00,,,0.00,WUHU216HW,2013-01-05 07:24:00,
2013-01-05 02:29:00,30.7,18.5,30.03,NW,315,4.3,5.8,60,0.00,,,0.00,WUHU216HW,2013-01-05 07:29:00,
2013-01-05 02:30:00,30.7,18.5,30.03,NW,315,4.3,5.8,60,0.00,,,0.00,WUHU216HW,2013-01-05 07:30:00,
2013-01-05 02:34:00,30.9,18.7,30.03,NNW,338,3.4,6.9,60,0.00,,,0.00,WUHU216HW,2013-01-05 07:34:00,
2013-01-05 02:35:00,30.9,18.7,30.03,NNW,338,3.4,6.9,60,0.00,,,0.00,WUHU216HW,2013-01-05 07:35:00,
2013-01-05 02:39:00,30.9,19.1,30.04,WNW,293,5.4,6.9,61,0.00,,,0.00,WUHU216HW,2013-01-05 07:39:00,
2013-01-05 02:40:00,30.9,19.1,30.04,WNW,293,5.4,6.9,61,0.00,,,0.00,WUHU216HW,2013-01-05 07:40:00,
2013-01-05 02:45:00,31.0,18.8,30.04,West,270,5.1,6.7,60,0.00,,,0.00,WUHU216HW,2013-01-05 07:45:00,
2013-01-05 02:50:00,31.0,18.8,30.04,WNW,293,3.6,6.5,60,0.00,,,0.00,WUHU216HW,2013-01-05 07:50:00,
2013-01-05 02:55:00,31.0,18.8,30.04,WSW,248,7.4,7.4,60,0.00,,,0.00,WUHU216HW,2013-01-05 07:55:00,
2013-01-05 03:00:00,31.4,19.2,30.04,WSW,248,4.3,9.2,60,0.00,,,0.00,WUHU216HW,2013-01-05 08:00:00,
2013-01-05 03:05:00,31.4,19.2,30.04,NW,315,5.6,9.2,60,0.00,,,0.00,WUHU216HW,2013-01-05 08:05:00,
2013-01-05 03:06:00,31.2,19.4,30.05,NW,315,6.3,6.3,61,0.00,,,0.00,WUHU216HW,2013-01-05 08:06:00,
2013-01-05 03:10:00,31.4,19.5,30.05,West,270,6.0,6.3,61,0.00,,,0.00,WUHU216HW,2013-01-05 08:10:00,
2013-01-05 03:11:00,31.4,19.5,30.05,West,270,6.0,6.3,61,0.00,,,0.00,WUHU216HW,2013-01-05 08:11:00,
2013-01-05 03:15:00,31.4,19.2,30.05,NW,315,2.5,7.6,60,0.00,,,0.00,WUHU216HW,2013-01-05 08:15:00,
2013-01-05 03:16:00,31.4,19.2,30.05,West,270,7.6,7.6,60,0.00,,,0.00,WUHU216HW,2013-01-05 08:16:00,
2013-01-05 03:20:00,31.6,19.7,30.05,NNW,338,11.9,11.9,61,0.00,,,0.00,WUHU216HW,2013-01-05 08:20:00,
2013-01-05 03:21:00,31.6,19.7,30.05,NNW,338,11.9,11.9,61,0.00,,,0.00,WUHU216HW,2013-01-05 08:21:00,
2013-01-05 03:25:00,31.6,19.7,30.05,WSW,248,3.4,11.9,61,0.00,,,0.00,WUHU216HW,2013-01-05 08:25:00,
2013-01-05 03:26:00,31.6,19.7,30.05,WSW,248,3.4,11.9,61,0.00,,,0.00,WUHU216HW,2013-01-05 08:26:00,
2013-01-05 03:30:00,31.6,19.7,30.05,WSW,248,5.1,5.4,61,0.00,,,0.00,WUHU216HW,2013-01-05 08:30:00,
2013-01-05 03:31:00,31.6,19.7,30.05,WSW,248,5.1,5.4,61,0.00,,,0.00,WUHU216HW,2013-01-05 08:31:00,
2013-01-05 03:35:00,31.6,19.7,30.05,WNW,293,6.3,7.2,61,0.00,,,0.00,WUHU216HW,2013-01-05 08:35:00,
2013-01-05 03:36:00,31.6,19.7,30.05,WNW,293,6.3,7.2,61,0.00,,,0.00,WUHU216HW,2013-01-05 08:36:00,
2013-01-05 03:37:00,31.8,19.9,30.05,SW,225,2.7,7.2,61,0.00,,,0.00,WUHU216HW,2013-01-05 08:37:00,
2013-01-05 03:40:00,31.8,19.9,30.05,West,270,4.3,8.3,61,0.00,,,0.00,WUHU216HW,2013-01-05 08:40:00,
2013-01-05 03:41:00,31.8,19.9,30.05,West,270,4.3,8.3,61,0.00,,,0.00,WUHU216HW,2013-01-05 08:41:00,
2013-01-05 03:42:00,31.8,19.9,30.05,WNW,293,4.7,8.3,61,0.00,,,0.00,WUHU216HW,2013-01-05 08:42:00,
2013-01-05 03:46:00,31.8,19.9,30.05,West,270,8.9,9.8,61,0.00,,,0.00,WUHU216HW,2013-01-05 08:46:00,
2013-01-05 03:47:00,31.8,19.9,30.05,NNW,338,3.6,9.8,61,0.00,,,0.00,WUHU216HW,2013-01-05 08:47:00,
2013-01-05 03:51:00,31.8,19.9,30.05,WSW,248,6.3,9.8,61,0.00,,,0.00,WUHU216HW,2013-01-05 08:51:00,
2013-01-05 03:52:00,31.8,19.9,30.05,NNE,23,7.8,9.8,61,0.00,,,0.00,WUHU216HW,2013-01-05 08:52:00,
2013-01-05 03:53:00,31.8,19.9,30.05,West,270,5.4,9.8,61,0.00,,,0.00,WUHU216HW,2013-01-05 08:53:00,
2013-01-05 03:56:00,31.9,20.0,30.05,WNW,293,3.4,7.8,61,0.00,,,0.00,WUHU216HW,2013-01-05 08:56:00,
2013-01-05 03:57:00,31.9,20.0,30.05,WNW,293,1.1,7.8,61,0.00,,,0.00,WUHU216HW,2013-01-05 08:57:00,
2013-01-05 03:58:00,31.9,20.0,30.05,WNW,293,6.3,7.8,61,0.00,,,0.00,WUHU216HW,2013-01-05 08:58:00,
2013-01-05 04:01:00,31.8,19.9,30.05,WNW,293,8.3,8.3,61,0.00,,,0.00,WUHU216HW,2013-01-05 09:01:00,
2013-01-05 04:02:00,31.8,19.9,30.05,WNW,293,5.4,8.3,61,0.00,,,0.00,WUHU216HW,2013-01-05 09:02:00,
2013-01-05 04:03:00,31.8,19.9,30.05,WNW,293,5.4,8.3,61,0.00,,,0.00,WUHU216HW,2013-01-05 09:03:00,
2013-01-05 04:06:00,31.9,20.0,30.05,NW,315,4.0,10.5,61,0.00,,,0.00,WUHU216HW,2013-01-05 09:06:00,
2013-01-05 04:07:00,32.1,20.2,30.05,NW,315,5.1,10.5,61,0.00,,,0.00,WUHU216HW,2013-01-05 09:07:00,
2013-01-05 04:08:00,31.9,20.0,30.05,NNW,338,5.4,10.5,61,0.00,,,0.00,WUHU216HW,2013-01-05 09:08:00,
2013-01-05 04:11:00,32.1,20.2,30.05,NNW,338,6.9,10.5,61,0.00,,,0.00,WUHU216HW,2013-01-05 09:11:00,
2013-01-05 04:12:00,31.9,20.0,30.05,NW,315,5.8,10.5,61,0.00,,,0.00,WUHU216HW,2013-01-05 09:12:00,
2013-01-05 04:13:00,32.1,20.2,30.05,NNW,338,2.0,10.5,61,0.00,,,0.00,WUHU216HW,2013-01-05 09:13:00,
2013-01-05 04:16:00,31.9,20.0,30.05,NW,315,4.9,9.4,61,0.00,,,0.00,WUHU216HW,2013-01-05 09:16:00,
2013-01-05 04:17:00,31.9,20.0,30.05,NNW,338,6.5,9.4,61,0.00,,,0.00,WUHU216HW,2013-01-05 09:17:00,
2013-01-05 04:18:00,31.9,20.0,30.05,WNW,293,3.4,9.4,61,0.00,,,0.00,WUHU216HW,2013-01-05 09:18:00,
2013-01-05 04:22:00,31.9,20.0,30.05,WNW,293,4.0,6.5,61,0.00,,,0.00,WUHU216HW,2013-01-05 09:22:00,
2013-01-05 04:23:00,32.1,20.2,30.05,NNW,338,5.1,6.5,61,0.00,,,0.00,WUHU216HW,2013-01-05 09:23:00,
2013-01-05 04:24:00,32.1,20.2,30.05,WNW,293,5.8,6.5,61,0.00,,,0.00,WUHU216HW,2013-01-05 09:24:00,
2013-01-05 04:27:00,32.1,20.2,30.05,West,270,11.6,11.6,61,0.00,,,0.00,WUHU216HW,2013-01-05 09:27:00,
2013-01-05 04:28:00,32.1,20.2,30.05,North,0,2.7,11.6,61,0.00,,,0.00,WUHU216HW,2013-01-05 09:28:00,
2013-01-05 04:29:00,32.1,20.2,30.05,WNW,293,4.0,11.6,61,0.00,,,0.00,WUHU216HW,2013-01-05 09:29:00,
2013-01-05 04:32:00,32.3,20.4,30.05,NNW,338,4.5,11.6,61,0.00,,,0.00,WUHU216HW,2013-01-05 09:32:00,
2013-01-05 04:33:00,32.3,20.4,30.06,West,270,3.6,11.6,61,0.00,,,0.00,WUHU216HW,2013-01-05 09:33:00,
2013-01-05 04:34:00,32.1,20.2,30.06,NW,315,5.1,11.6,61,0.00,,,0.00,WUHU216HW,2013-01-05 09:34:00,
2013-01-05 04:37:00,32.1,20.2,30.06,WNW,293,4.0,6.9,61,0.00,,,0.00,WUHU216HW,2013-01-05 09:37:00,
2013-01-05 04:38:00,32.1,20.2,30.06,WNW,293,4.3,6.9,61,0.00,,,0.00,WUHU216HW,2013-01-05 09:38:00,
2013-01-05 04:39:00,32.1,20.2,30.06,North,0,6.3,6.9,61,0.00,,,0.00,WUHU216HW,2013-01-05 09:39:00,
2013-01-05 04:40:00,32.1,20.2,30.06,NW,315,4.5,6.9,61,0.00,,,0.00,WUHU216HW,2013-01-05 09:40:00,
2013-01-05 04:42:00,32.1,20.2,30.06,WNW,293,5.4,6.3,61,0.00,,,0.00,WUHU216HW,2013-01-05 09:42:00,
2013-01-05 04:43:00,32.1,20.2,30.06,WNW,293,5.8,6.3,61,0.00,,,0.00,WUHU216HW,2013-01-05 09:43:00,
2013-01-05 04:44:00,31.9,20.4,30.06,WNW,293,6.3,6.3,62,0.00,,,0.00,WUHU216HW,2013-01-05 09:44:00,
2013-01-05 04:45:00,32.1,20.6,30.06,NNW,338,2.5,6.3,62,0.00,,,0.00,WUHU216HW,2013-01-05 09:45:00,
2013-01-05 04:47:00,32.1,20.6,30.06,WNW,293,6.5,8.1,62,0.00,,,0.00,WUHU216HW,2013-01-05 09:47:00,
2013-01-05 04:48:00,32.1,20.6,30.06,North,0,4.0,8.1,62,0.00,,,0.00,WUHU216HW,2013-01-05 09:48:00,
2013-01-05 04:49:00,32.1,20.6,30.06,WNW,293,4.3,8.1,62,0.00,,,0.00,WUHU216HW,2013-01-05 09:49:00,
2013-01-05 04:50:00,31.9,20.4,30.06,West,270,4.0,8.1,62,0.00,,,0.00,WUHU216HW,2013-01-05 09:50:00,
2013-01-05 04:52:00,32.1,20.6,30.06,West,270,4.5,8.1,62,0.00,,,0.00,WUHU216HW,2013-01-05 09:52:00,
2013-01-05 04:53:00,32.1,20.6,30.06,West,270,3.4,8.1,62,0.00,,,0.00,WUHU216HW,2013-01-05 09:53:00,
2013-01-05 04:54:00,31.9,20.4,30.06,WNW,293,5.8,8.1,62,0.00,,,0.00,WUHU216HW,2013-01-05 09:54:00,
2013-01-05 04:55:00,32.1,20.6,30.06,NW,315,9.8,9.8,62,0.00,,,0.00,WUHU216HW,2013-01-05 09:55:00,
2013-01-05 04:57:00,32.1,20.6,30.07,WNW,293,4.7,9.8,62,0.00,,,0.00,WUHU216HW,2013-01-05 09:57:00,
2013-01-05 04:58:00,32.1,20.6,30.06,NW,315,2.2,9.8,62,0.00,,,0.00,WUHU216HW,2013-01-05 09:58:00,
2013-01-05 04:59:00,32.1,20.6,30.06,WNW,293,4.5,9.8,62,0.00,,,0.00,WUHU216HW,2013-01-05 09:59:00,
2013-01-05 05:00:00,32.1,20.6,30.07,WNW,293,4.5,9.8,62,0.00,,,0.00,WUHU216HW,2013-01-05 10:00:00,
2013-01-05 05:02:00,32.1,20.6,30.07,West,270,4.0,9.8,62,0.00,,,0.00,WUHU216HW,2013-01-05 10:02:00,
2013-01-05 05:03:00,32.1,20.6,30.07,WNW,293,9.8,9.8,62,0.00,,,0.00,WUHU216HW,2013-01-05 10:03:00,
2013-01-05 05:04:00,32.1,20.6,30.07,West,270,2.9,9.8,62,0.00,,,0.00,WUHU216HW,2013-01-05 10:04:00,
2013-01-05 05:05:00,32.1,20.6,30.07,SW,225,3.6,9.8,62,0.00,,,0.00,WUHU216HW,2013-01-05 10:05:00,
2013-01-05 05:07:00,32.1,20.6,30.07,NNW,338,7.4,9.8,62,0.00,,,0.00,WUHU216HW,2013-01-05 10:07:00,
2013-01-05 05:09:00,32.1,20.6,30.07,West,270,5.1,9.8,62,0.00,,,0.00,WUHU216HW,2013-01-05 10:09:00,
2013-01-05 05:10:00,32.3,20.8,30.07,WNW,293,1.8,9.8,62,0.00,,,0.00,WUHU216HW,2013-01-05 10:10:00,
2013-01-05 05:12:00,32.3,20.8,30.07,West,270,3.4,9.8,62,0.00,,,0.00,WUHU216HW,2013-01-05 10:12:00,
2013-01-05 05:14:00,32.3,20.8,30.07,WNW,293,7.6,7.6,62,0.00,,,0.00,WUHU216HW,2013-01-05 10:14:00,
2013-01-05 05:15:00,32.3,20.8,30.07,WSW,248,8.3,8.3,62,0.00,,,0.00,WUHU216HW,2013-01-05 10:15:00,
2013-01-05 05:16:00,32.3,20.8,30.07,NNW,338,5.6,8.3,62,0.00,,,0.00,WUHU216HW,2013-01-05 10:16:00,
2013-01-05 05:17:00,32.5,21.0,30.08,WNW,293,6.0,8.3,62,0.00,,,0.00,WUHU216HW,2013-01-05 10:17:00,
2013-01-05 05:19:00,32.5,21.0,30.08,SW,225,10.1,10.1,62,0.00,,,0.00,WUHU216HW,2013-01-05 10:19:00,
2013-01-05 05:20:00,32.5,21.0,30.08,SW,225,10.1,10.1,62,0.00,,,0.00,WUHU216HW,2013-01-05 10:20:00,
2013-01-05 05:21:00,32.5,21.0,30.08,WSW,248,5.6,10.1,62,0.00,,,0.00,WUHU216HW,2013-01-05 10:21:00,
2013-01-05 05:22:00,32.5,21.0,30.08,WNW,293,7.6,10.1,62,0.00,,,0.00,WUHU216HW,2013-01-05 10:22:00,
2013-01-05 05:24:00,32.5,21.0,30.08,NNW,338,3.6,11.4,62,0.00,,,0.00,WUHU216HW,2013-01-05 10:24:00,
2013-01-05 05:25:00,32.5,21.0,30.08,NNW,338,3.6,11.4,62,0.00,,,0.00,WUHU216HW,2013-01-05 10:25:00,
2013-01-05 05:26:00,32.5,21.0,30.08,West,270,6.3,11.4,62,0.00,,,0.00,WUHU216HW,2013-01-05 10:26:00,
2013-01-05 05:27:00,32.5,21.0,30.08,WNW,293,4.5,11.4,62,0.00,,,0.00,WUHU216HW,2013-01-05 10:27:00,
2013-01-05 05:30:00,32.5,21.0,30.08,NW,315,7.6,11.4,62,0.00,,,0.00,WUHU216HW,2013-01-05 10:30:00,
2013-01-05 05:31:00,32.5,21.0,30.08,WNW,293,5.6,11.4,62,0.00,,,0.00,WUHU216HW,2013-01-05 10:31:00,
2013-01-05 05:33:00,32.5,21.0,30.08,NW,315,5.8,11.4,62,0.00,,,0.00,WUHU216HW,2013-01-05 10:33:00,
2013-01-05 05:35:00,32.5,21.0,30.08,WSW,248,4.0,7.6,62,0.00,,,0.00,WUHU216HW,2013-01-05 10:35:00,
2013-01-05 05:36:00,32.5,21.0,30.09,West,270,6.3,7.6,62,0.00,,,0.00,WUHU216HW,2013-01-05 10:36:00,
2013-01-05 05:38:00,32.5,21.0,30.09,SSW,203,5.8,7.6,62,0.00,,,0.00,WUHU216HW,2013-01-05 10:38:00,
2013-01-05 05:40:00,32.5,21.0,30.09,WNW,293,5.8,6.3,62,0.00,,,0.00,WUHU216HW,2013-01-05 10:40:00,
2013-01-05 05:41:00,32.5,21.0,30.09,West,270,5.4,6.3,62,0.00,,,0.00,WUHU216HW,2013-01-05 10:41:00,
2013-01-05 05:43:00,32.5,21.0,30.10,WNW,293,5.4,6.3,62,0.00,,,0.00,WUHU216HW,2013-01-05 10:43:00,
2013-01-05 05:45:00,32.5,21.0,30.09,WNW,293,6.9,11.0,62,0.00,,,0.00,WUHU216HW,2013-01-05 10:45:00,
2013-01-05 05:46:00,32.5,21.0,30.10,West,270,6.3,11.0,62,0.00,,,0.00,WUHU216HW,2013-01-05 10:46:00,
2013-01-05 05:48:00,32.5,21.0,30.09,West,270,2.7,11.0,62,0.00,,,0.00,WUHU216HW,2013-01-05 10:48:00,
2013-01-05 05:50:00,32.7,21.2,30.10,WNW,293,3.4,11.0,62,0.00,,,0.00,WUHU216HW,2013-01-05 10:50:00,
2013-01-05 05:51:00,32.7,21.2,30.10,West,270,8.7,11.0,62,0.00,,,0.00,WUHU216HW,2013-01-05 10:51:00,
2013-01-05 05:53:00,32.7,21.2,30.10,North,0,11.6,11.6,62,0.00,,,0.00,WUHU216HW,2013-01-05 10:53:00,
2013-01-05 05:55:00,32.7,21.2,30.10,WSW,248,4.7,11.6,62,0.00,,,0.00,WUHU216HW,2013-01-05 10:55:00,
2013-01-05 05:56:00,32.7,21.2,30.10,WSW,248,4.7,11.6,62,0.00,,,0.00,WUHU216HW,2013-01-05 10:56:00,
2013-01-05 05:57:00,32.7,21.2,30.10,West,270,6.9,11.6,62,0.00,,,0.00,WUHU216HW,2013-01-05 10:57:00,
2013-01-05 05:59:00,32.7,21.2,30.10,WNW,293,2.0,13.2,62,0.00,,,0.00,WUHU216HW,2013-01-05 10:59:00,
2013-01-05 06:00:00,32.8,21.3,30.10,WNW,293,2.0,13.2,62,0.00,,,0.00,WUHU216HW,2013-01-05 11:00:00,
2013-01-05 06:01:00,32.8,21.3,30.10,NW,315,1.6,13.2,62,0.00,,,0.00,WUHU216HW,2013-01-05 11:01:00,
2013-01-05 06:02:00,32.7,21.2,30.10,West,270,9.6,13.2,62,0.00,,,0.00,WUHU216HW,2013-01-05 11:02:00,
2013-01-05 06:04:00,32.7,21.2,30.10,WNW,293,7.6,13.2,62,0.00,,,0.00,WUHU216HW,2013-01-05 11:04:00,
2013-01-05 06:05:00,32.7,21.2,30.10,West,270,1.8,13.2,62,0.00,,,0.00,WUHU216HW,2013-01-05 11:05:00,
2013-01-05 06:06:00,32.7,21.2,30.11,NNW,338,6.3,13.2,62,0.00,,,0.00,WUHU216HW,2013-01-05 11:06:00,
2013-01-05 06:07:00,32.7,21.2,30.11,WNW,293,2.0,13.2,62,0.00,,,0.00,WUHU216HW,2013-01-05 11:07:00,
2013-01-05 06:09:00,32.7,21.2,30.11,WNW,293,7.4,9.6,62,0.00,,,0.00,WUHU216HW,2013-01-05 11:09:00,
2013-01-05 06:10:00,32.7,21.2,30.11,WNW,293,2.5,9.6,62,0.00,,,0.00,WUHU216HW,2013-01-05 11:10:00,
2013-01-05 06:11:00,32.7,21.2,30.11,NW,315,3.4,9.6,62,0.00,,,0.00,WUHU216HW,2013-01-05 11:11:00,
2013-01-05 06:12:00,32.7,21.2,30.12,NNW,338,7.6,7.6,62,0.00,,,0.00,WUHU216HW,2013-01-05 11:12:00,
2013-01-05 06:15:00,32.7,21.2,30.12,WNW,293,4.5,7.6,62,0.00,,,0.00,WUHU216HW,2013-01-05 11:15:00,
2013-01-05 06:16:00,32.7,21.2,30.12,WSW,248,8.1,8.1,62,0.00,,,0.00,WUHU216HW,2013-01-05 11:16:00,
2013-01-05 06:17:00,32.8,21.3,30.12,SW,225,8.9,9.8,62,0.00,,,0.00,WUHU216HW,2013-01-05 11:17:00,
2013-01-05 06:20:00,32.8,21.3,30.12,SW,225,8.1,9.8,62,0.00,,,0.00,WUHU216HW,2013-01-05 11:20:00,
2013-01-05 06:21:00,32.8,21.6,30.12,WNW,293,4.7,9.8,63,0.00,,,0.00,WUHU216HW,2013-01-05 11:21:00,
2013-01-05 06:22:00,32.8,21.3,30.13,WNW,293,6.0,9.8,62,0.00,,,0.00,WUHU216HW,2013-01-05 11:22:00,
2013-01-05 06:25:00,32.8,21.3,30.13,WNW,293,2.5,9.8,62,0.00,,,0.00,WUHU216HW,2013-01-05 11:25:00,
2013-01-05 06:26:00,32.8,21.3,30.13,WNW,293,2.5,9.8,62,0.00,,,0.00,WUHU216HW,2013-01-05 11:26:00,
2013-01-05 06:27:00,32.8,21.6,30.13,NW,315,4.5,8.1,63,0.00,,,0.00,WUHU216HW,2013-01-05 11:27:00,
2013-01-05 06:30:00,32.8,21.6,30.13,WNW,293,3.4,6.0,63,0.00,,,0.00,WUHU216HW,2013-01-05 11:30:00,
2013-01-05 06:31:00,32.8,21.6,30.13,WNW,293,3.4,6.0,63,0.00,,,0.00,WUHU216HW,2013-01-05 11:31:00,
2013-01-05 06:32:00,32.8,21.6,30.13,WNW,293,6.9,6.9,63,0.00,,,0.00,WUHU216HW,2013-01-05 11:32:00,
2013-01-05 06:35:00,32.8,21.6,30.13,NW,315,4.0,6.9,63,0.00,,,0.00,WUHU216HW,2013-01-05 11:35:00,
2013-01-05 06:36:00,32.8,21.6,30.13,NW,315,4.0,6.9,63,0.00,,,0.00,WUHU216HW,2013-01-05 11:36:00,
2013-01-05 06:38:00,32.8,21.6,30.13,WNW,293,5.6,6.9,63,0.00,,,0.00,WUHU216HW,2013-01-05 11:38:00,
2013-01-05 06:40:00,32.8,21.6,30.13,West,270,3.6,6.9,63,0.00,,,0.00,WUHU216HW,2013-01-05 11:40:00,
2013-01-05 06:41:00,32.8,21.6,30.13,WNW,293,3.4,6.9,63,0.00,,,0.00,WUHU216HW,2013-01-05 11:41:00,
2013-01-05 06:43:00,32.8,21.6,30.13,WSW,248,7.4,7.4,63,0.00,,,0.00,WUHU216HW,2013-01-05 11:43:00,
2013-01-05 06:45:00,33.0,21.8,30.13,West,270,8.3,8.3,63,0.00,,,0.00,WUHU216HW,2013-01-05 11:45:00,
2013-01-05 06:46:00,33.0,21.8,30.13,WSW,248,3.6,8.3,63,0.00,,,0.00,WUHU216HW,2013-01-05 11:46:00,
2013-01-05 06:47:00,33.0,21.8,30.13,WSW,248,3.6,8.3,63,0.00,,,0.00,WUHU216HW,2013-01-05 11:47:00,
2013-01-05 06:48:00,33.0,21.8,30.13,West,270,8.5,8.5,63,0.00,,,0.00,WUHU216HW,2013-01-05 11:48:00,
2013-01-05 06:50:00,33.0,21.8,30.13,WNW,293,10.7,10.7,63,0.00,,,0.00,WUHU216HW,2013-01-05 11:50:00,
2013-01-05 06:51:00,33.0,21.8,30.13,WNW,293,4.7,10.7,63,0.00,,,0.00,WUHU216HW,2013-01-05 11:51:00,
2013-01-05 06:52:00,33.0,21.8,30.13,WNW,293,4.7,10.7,63,0.00,,,0.00,WUHU216HW,2013-01-05 11:52:00,
2013-01-05 06:53:00,33.2,22.0,30.14,NNW,338,4.7,10.7,63,0.00,,,0.00,WUHU216HW,2013-01-05 11:53:00,
2013-01-05 06:55:00,33.0,21.8,30.14,WNW,293,4.0,10.7,63,0.00,,,0.00,WUHU216HW,2013-01-05 11:55:00,
2013-01-05 06:57:00,33.0,21.8,30.14,West,270,2.5,10.7,63,0.00,,,0.00,WUHU216HW,2013-01-05 11:57:00,
2013-01-05 06:58:00,33.0,21.8,30.14,WNW,293,11.6,11.6,63,0.00,,,0.00,WUHU216HW,2013-01-05 11:58:00,
2013-01-05 07:00:00,32.8,21.6,30.15,WNW,293,6.9,11.6,63,0.00,,,0.00,WUHU216HW,2013-01-05 12:00:00,
2013-01-05 07:02:00,33.0,21.8,30.15,WNW,293,5.4,11.6,63,0.00,,,0.00,WUHU216HW,2013-01-05 12:02:00,
2013-01-05 07:03:00,33.0,21.8,30.15,NW,315,2.7,11.6,63,0.00,,,0.00,WUHU216HW,2013-01-05 12:03:00,
2013-01-05 07:06:00,33.0,21.8,30.15,NW,315,2.5,11.6,63,0.00,,,0.00,WUHU216HW,2013-01-05 12:06:00,
2013-01-05 07:07:00,32.8,21.6,30.15,NW,315,5.4,11.6,63,0.00,,,0.00,WUHU216HW,2013-01-05 12:07:00,
2013-01-05 07:08:00,32.8,21.6,30.15,WSW,248,9.2,9.2,63,0.00,,,0.00,WUHU216HW,2013-01-05 12:08:00,
2013-01-05 07:11:00,32.8,21.6,30.15,WNW,293,4.0,9.2,63,0.00,,,0.00,WUHU216HW,2013-01-05 12:11:00,
2013-01-05 07:12:00,32.8,21.6,30.15,WNW,293,5.4,9.2,63,0.00,,,0.00,WUHU216HW,2013-01-05 12:12:00,
2013-01-05 07:13:00,32.8,21.6,30.15,NNW,338,5.8,9.2,63,0.00,,,0.00,WUHU216HW,2013-01-05 12:13:00,
2013-01-05 07:16:00,32.8,21.6,30.15,West,270,6.3,9.2,63,0.00,,,0.00,WUHU216HW,2013-01-05 12:16:00,
2013-01-05 07:17:00,32.8,21.6,30.15,NNW,338,4.3,9.2,63,0.00,,,0.00,WUHU216HW,2013-01-05 12:17:00,
2013-01-05 07:18:00,32.8,21.6,30.15,NNW,338,4.3,9.2,63,0.00,,,0.00,WUHU216HW,2013-01-05 12:18:00,
2013-01-05 07:19:00,32.8,21.6,30.15,WNW,293,3.1,8.5,63,0.00,,,0.00,WUHU216HW,2013-01-05 12:19:00,
2013-01-05 07:21:00,32.7,21.9,30.15,NNW,338,2.9,6.9,64,0.00,,,0.00,WUHU216HW,2013-01-05 12:21:00,
2013-01-05 07:22:00,32.7,21.9,30.15,WNW,293,3.4,6.9,64,0.00,,,0.00,WUHU216HW,2013-01-05 12:22:00,
2013-01-05 07:23:00,32.7,21.9,30.15,WNW,293,3.4,6.9,64,0.00,,,0.00,WUHU216HW,2013-01-05 12:23:00,
2013-01-05 07:24:00,32.7,21.9,30.15,WSW,248,4.0,6.9,64,0.00,,,0.00,WUHU216HW,2013-01-05 12:24:00,
2013-01-05 07:26:00,32.5,21.7,30.15,WNW,293,4.0,7.6,64,0.00,,,0.00,WUHU216HW,2013-01-05 12:26:00,
2013-01-05 07:27:00,32.5,21.7,30.15,WNW,293,4.5,7.6,64,0.00,,,0.00,WUHU216HW,2013-01-05 12:27:00,
2013-01-05 07:28:00,32.5,21.7,30.15,WNW,293,4.5,7.6,64,0.00,,,0.00,WUHU216HW,2013-01-05 12:28:00,
2013-01-05 07:29:00,32.5,21.7,30.15,WNW,293,9.4,9.4,64,0.00,,,0.00,WUHU216HW,2013-01-05 12:29:00,
2013-01-05 07:31:00,32.5,21.7,30.16,West,270,4.3,9.4,64,0.00,,,0.00,WUHU216HW,2013-01-05 12:31:00,
2013-01-05 07:32:00,32.5,21.7,30.15,WNW,293,4.9,9.4,64,0.00,,,0.00,WUHU216HW,2013-01-05 12:32:00,
2013-01-05 07:33:00,32.5,21.7,30.15,WNW,293,4.9,9.4,64,0.00,,,0.00,WUHU216HW,2013-01-05 12:33:00,
2013-01-05 07:34:00,32.5,21.7,30.16,West,270,4.0,9.4,64,0.00,,,0.00,WUHU216HW,2013-01-05 12:34:00,
2013-01-05 07:36:00,32.5,21.7,30.16,NNW,338,4.0,9.4,64,0.00,,,0.00,WUHU216HW,2013-01-05 12:36:00,
2013-01-05 07:38:00,32.5,21.7,30.16,NW,315,2.0,9.4,64,0.00,,,0.00,WUHU216HW,2013-01-05 12:38:00,
2013-01-05 07:39:00,32.5,21.7,30.16,NNE,23,2.2,4.9,64,0.00,,,0.00,WUHU216HW,2013-01-05 12:39:00,
2013-01-05 07:41:00,32.3,21.9,30.16,North,0,2.5,4.9,65,0.00,,,0.00,WUHU216HW,2013-01-05 12:41:00,
2013-01-05 07:43:00,32.3,21.9,30.17,North,0,4.0,4.5,65,0.00,,,0.00,WUHU216HW,2013-01-05 12:43:00,
2013-01-05 07:44:00,32.5,22.1,30.17,WNW,293,3.8,4.5,65,0.00,,,0.00,WUHU216HW,2013-01-05 12:44:00,
2013-01-05 07:46:00,32.5,22.1,30.17,WSW,248,3.4,4.5,65,0.00,,,0.00,WUHU216HW,2013-01-05 12:46:00,
2013-01-05 07:48:00,32.3,21.9,30.17,WNW,293,3.4,4.5,65,0.00,,,0.00,WUHU216HW,2013-01-05 12:48:00,
2013-01-05 07:50:00,32.3,21.9,30.17,WNW,293,5.1,5.1,65,0.00,,,0.00,WUHU216HW,2013-01-05 12:50:00,
2013-01-05 07:51:00,32.3,21.9,30.18,WNW,293,3.6,5.1,65,0.00,,,0.00,WUHU216HW,2013-01-05 12:51:00,
2013-01-05 07:53:00,32.5,22.1,30.18,WNW,293,2.9,5.1,65,0.00,,,0.00,WUHU216HW,2013-01-05 12:53:00,
2013-01-05 07:55:00,32.3,21.9,30.18,WNW,293,6.3,6.3,65,0.00,,,0.00,WUHU216HW,2013-01-05 12:55:00,
2013-01-05 07:56:00,32.5,22.1,30.18,SW,225,1.1,6.3,65,0.00,,,0.00,WUHU216HW,2013-01-05 12:56:00,
2013-01-05 07:58:00,32.5,22.1,30.18,NNW,338,5.1,6.3,65,0.00,,,0.00,WUHU216HW,2013-01-05 12:58:00,
2013-01-05 08:00:00,32.5,22.1,30.18,WNW,293,2.5,6.3,65,0.00,,,0.00,WUHU216HW,2013-01-05 13:00:00,
2013-01-05 08:02:00,32.5,22.1,30.17,NNE,23,3.1,6.3,65,0.00,,,0.00,WUHU216HW,2013-01-05 13:02:00,
2013-01-05 08:03:00,32.5,22.1,30.18,West,270,5.4,6.3,65,0.00,,,0.00,WUHU216HW,2013-01-05 13:03:00,
2013-01-05 08:05:00,32.5,22.1,30.18,West,270,4.7,5.4,65,0.00,,,0.00,WUHU216HW,2013-01-05 13:05:00,
2013-01-05 08:07:00,32.5,22.1,30.18,West,270,5.8,5.8,65,0.00,,,0.00,WUHU216HW,2013-01-05 13:07:00,
2013-01-05 08:08:00,32.5,22.1,30.18,WSW,248,4.7,5.8,65,0.00,,,0.00,WUHU216HW,2013-01-05 13:08:00,
2013-01-05 08:10:00,32.7,22.3,30.18,NW,315,4.0,5.8,65,0.00,,,0.00,WUHU216HW,2013-01-05 13:10:00,
2013-01-05 08:12:00,32.7,22.3,30.19,WNW,293,3.4,5.8,65,0.00,,,0.00,WUHU216HW,2013-01-05 13:12:00,
2013-01-05 08:13:00,32.7,22.3,30.19,WNW,293,2.9,5.8,65,0.00,,,0.00,WUHU216HW,2013-01-05 13:13:00,
2013-01-05 08:15:00,32.7,22.3,30.19,West,270,4.0,5.8,65,0.00,,,0.00,WUHU216HW,2013-01-05 13:15:00,
2013-01-05 08:17:00,32.7,22.3,30.19,West,270,4.0,5.6,65,0.00,,,0.00,WUHU216HW,2013-01-05 13:17:00,
2013-01-05 08:18:00,32.7,22.3,30.19,WNW,293,2.9,5.6,65,0.00,,,0.00,WUHU216HW,2013-01-05 13:18:00,
2013-01-05 08:19:00,32.7,22.3,30.19,WNW,293,2.9,5.6,65,0.00,,,0.00,WUHU216HW,2013-01-05 13:19:00,
2013-01-05 08:20:00,32.9,22.5,30.19,North,0,7.6,7.6,65,0.00,,,0.00,WUHU216HW,2013-01-05 13:20:00,
2013-01-05 08:22:00,33.1,22.3,30.19,NW,315,3.6,7.6,64,0.00,,,0.00,WUHU216HW,2013-01-05 13:22:00,
2013-01-05 08:24:00,33.1,22.3,30.19,NNW,338,1.8,7.6,64,0.00,,,0.00,WUHU216HW,2013-01-05 13:24:00,
2013-01-05 08:25:00,33.3,22.5,30.19,WNW,293,4.5,7.6,64,0.00,,,0.00,WUHU216HW,2013-01-05 13:25:00,
2013-01-05 08:28:00,33.3,22.5,30.19,NNW,338,2.5,7.6,64,0.00,,,0.00,WUHU216HW,2013-01-05 13:28:00,
2013-01-05 08:29:00,33.3,22.5,30.19,NW,315,5.4,7.6,64,0.00,,,0.00,WUHU216HW,2013-01-05 13:29:00,
2013-01-05 08:31:00,33.3,22.5,30.19,WNW,293,5.1,5.4,64,0.00,,,0.00,WUHU216HW,2013-01-05 13:31:00,
2013-01-05 08:33:00,33.3,22.5,30.19,North,0,2.9,6.9,64,0.00,,,0.00,WUHU216HW,2013-01-05 13:33:00,
2013-01-05 08:34:00,33.3,22.5,30.19,NNW,338,3.1,6.9,64,0.00,,,0.00,WUHU216HW,2013-01-05 13:34:00,
2013-01-05 08:36:00,33.3,22.5,30.19,NNW,338,1.6,6.9,64,0.00,,,0.00,WUHU216HW,2013-01-05 13:36:00,
2013-01-05 08:38:00,33.5,22.7,30.18,WNW,293,3.4,6.9,64,0.00,,,0.00,WUHU216HW,2013-01-05 13:38:00,
2013-01-05 08:39:00,33.5,22.7,30.18,NW,315,3.4,6.9,64,0.00,,,0.00,WUHU216HW,2013-01-05 13:39:00,
2013-01-05 08:40:00,33.5,22.7,30.19,West,270,3.4,6.9,64,0.00,,,0.00,WUHU216HW,2013-01-05 13:40:00,
2013-01-05 08:41:00,33.6,22.7,30.18,WSW,248,4.7,6.9,64,0.00,,,0.00,WUHU216HW,2013-01-05 13:41:00,
2013-01-05 08:43:00,33.8,22.9,30.19,West,270,5.4,5.6,64,0.00,,,0.00,WUHU216HW,2013-01-05 13:43:00,
2013-01-05 08:44:00,34.1,23.3,30.19,NNW,338,6.0,6.0,64,0.00,,,0.00,WUHU216HW,2013-01-05 13:44:00,
2013-01-05 08:45:00,34.1,23.3,30.19,NNW,338,6.0,6.0,64,0.00,,,0.00,WUHU216HW,2013-01-05 13:45:00,
2013-01-05 08:46:00,34.3,23.1,30.19,WNW,293,4.0,6.0,63,0.00,,,0.00,WUHU216HW,2013-01-05 13:46:00,
2013-01-05 08:48:00,34.8,23.6,30.19,West,270,3.6,10.1,63,0.00,,,0.00,WUHU216HW,2013-01-05 13:48:00,
2013-01-05 08:49:00,35.2,24.0,30.19,West,270,5.4,10.1,63,0.00,,,0.00,WUHU216HW,2013-01-05 13:49:00,
2013-01-05 08:50:00,35.2,24.0,30.19,West,270,5.4,10.1,63,0.00,,,0.00,WUHU216HW,2013-01-05 13:50:00,
2013-01-05 08:51:00,35.5,24.2,30.20,North,0,2.2,10.1,63,0.00,,,0.00,WUHU216HW,2013-01-05 13:51:00,
2013-01-05 08:53:00,35.9,24.6,30.20,North,0,1.8,10.1,63,0.00,,,0.00,WUHU216HW,2013-01-05 13:53:00,
2013-01-05 08:55:00,36.1,24.4,30.20,NW,315,4.7,10.1,62,0.00,,,0.00,WUHU216HW,2013-01-05 13:55:00,
2013-01-05 08:56:00,36.1,24.0,30.20,NW,315,5.1,6.3,61,0.00,,,0.00,WUHU216HW,2013-01-05 13:56:00,
2013-01-05 08:58:00,36.1,24.0,30.20,North,0,1.6,6.3,61,0.00,,,0.00,WUHU216HW,2013-01-05 13:58:00,
2013-01-05 09:00:00,36.1,23.6,30.20,North,0,1.8,6.3,60,0.00,,,0.00,WUHU216HW,2013-01-05 14:00:00,
2013-01-05 09:01:00,36.1,23.6,30.20,North,0,1.8,6.3,60,0.00,,,0.00,WUHU216HW,2013-01-05 14:01:00,
2013-01-05 09:02:00,36.1,23.6,30.20,North,0,5.4,5.4,60,0.00,,,0.00,WUHU216HW,2013-01-05 14:02:00,
2013-01-05 09:03:00,36.1,23.6,30.20,West,270,3.8,5.4,60,0.00,,,0.00,WUHU216HW,2013-01-05 14:03:00,
2013-01-05 09:05:00,36.1,23.6,30.21,WNW,293,4.7,6.3,60,0.00,,,0.00,WUHU216HW,2013-01-05 14:05:00,
2013-01-05 09:06:00,36.1,23.6,30.21,WSW,248,6.5,6.5,60,0.00,,,0.00,WUHU216HW,2013-01-05 14:06:00,
2013-01-05 09:07:00,36.2,23.7,30.21,North,0,3.1,6.5,60,0.00,,,0.00,WUHU216HW,2013-01-05 14:07:00,
2013-01-05 09:08:00,36.2,23.7,30.20,NNW,338,2.2,6.5,60,0.00,,,0.00,WUHU216HW,2013-01-05 14:08:00,
2013-01-05 09:10:00,36.2,23.7,30.20,NW,315,2.0,6.5,60,0.00,,,0.00,WUHU216HW,2013-01-05 14:10:00,
2013-01-05 09:11:00,36.2,23.7,30.20,NW,315,2.0,6.5,60,0.00,,,0.00,WUHU216HW,2013-01-05 14:11:00,
2013-01-05 09:12:00,36.6,24.4,30.21,North,0,2.7,6.5,61,0.00,,,0.00,WUHU216HW,2013-01-05 14:12:00,
2013-01-05 09:13:00,36.5,24.4,30.21,NW,315,4.7,6.5,61,0.00,,,0.00,WUHU216HW,2013-01-05 14:13:00,
2013-01-05 09:16:00,36.9,24.4,30.21,West,270,2.5,6.5,60,0.00,,,0.00,WUHU216HW,2013-01-05 14:16:00,
2013-01-05 09:17:00,37.0,24.1,30.21,WSW,248,7.6,7.6,59,0.00,,,0.00,WUHU216HW,2013-01-05 14:17:00,
2013-01-05 09:18:00,37.0,24.1,30.21,West,270,2.7,7.6,59,0.00,,,0.00,WUHU216HW,2013-01-05 14:18:00,
2013-01-05 09:21:00,37.0,23.7,30.21,NNW,338,5.6,7.6,58,0.00,,,0.00,WUHU216HW,2013-01-05 14:21:00,
2013-01-05 09:22:00,37.2,24.2,30.21,WNW,293,4.7,7.6,59,0.00,,,0.00,WUHU216HW,2013-01-05 14:22:00,
2013-01-05 09:23:00,37.2,23.8,30.22,WNW,293,4.0,7.6,58,0.00,,,0.00,WUHU216HW,2013-01-05 14:23:00,
2013-01-05 09:26:00,37.2,23.8,30.22,West,270,4.5,7.4,58,0.00,,,0.00,WUHU216HW,2013-01-05 14:26:00,
2013-01-05 09:27:00,37.2,23.8,30.22,West,270,7.4,7.4,58,0.00,,,0.00,WUHU216HW,2013-01-05 14:27:00,
2013-01-05 09:28:00,37.2,23.8,30.21,WNW,293,8.3,8.3,58,0.00,,,0.00,WUHU216HW,2013-01-05 14:28:00,
2013-01-05 09:31:00,37.2,23.4,30.21,WNW,293,7.8,8.3,57,0.00,,,0.00,WUHU216HW,2013-01-05 14:31:00,
2013-01-05 09:32:00,36.9,23.5,30.22,NW,315,3.4,8.3,58,0.00,,,0.00,WUHU216HW,2013-01-05 14:32:00,
2013-01-05 09:33:00,36.9,23.5,30.22,NW,315,2.5,8.3,58,0.00,,,0.00,WUHU216HW,2013-01-05 14:33:00,
2013-01-05 09:36:00,36.5,23.1,30.22,West,270,4.0,8.3,58,0.00,,,0.00,WUHU216HW,2013-01-05 14:36:00,
2013-01-05 09:37:00,36.5,23.1,30.22,North,0,1.6,8.3,58,0.00,,,0.00,WUHU216HW,2013-01-05 14:37:00,
2013-01-05 09:38:00,36.7,23.3,30.22,WNW,293,4.0,7.8,58,0.00,,,0.00,WUHU216HW,2013-01-05 14:38:00,
2013-01-05 09:41:00,36.9,23.5,30.22,West,270,4.0,6.3,58,0.00,,,0.00,WUHU216HW,2013-01-05 14:41:00,
2013-01-05 09:42:00,37.1,24.2,30.23,WNW,293,4.3,6.3,59,0.00,,,0.00,WUHU216HW,2013-01-05 14:42:00,
2013-01-05 09:44:00,37.1,23.8,30.23,WSW,248,1.8,6.3,58,0.00,,,0.00,WUHU216HW,2013-01-05 14:44:00,
2013-01-05 09:46:00,37.5,24.1,30.23,NNW,338,1.3,4.3,58,0.00,,,0.00,WUHU216HW,2013-01-05 14:46:00,
2013-01-05 09:47:00,37.5,24.1,30.23,NNW,338,4.0,4.3,58,0.00,,,0.00,WUHU216HW,2013-01-05 14:47:00,
2013-01-05 09:49:00,37.8,24.4,30.23,NNW,338,4.9,4.9,58,0.00,,,0.00,WUHU216HW,2013-01-05 14:49:00,
2013-01-05 09:51:00,38.2,24.4,30.24,NW,315,10.1,10.1,57,0.00,,,0.00,WUHU216HW,2013-01-05 14:51:00,
2013-01-05 09:52:00,38.2,24.3,30.24,WSW,248,4.7,10.1,57,0.00,,,0.00,WUHU216HW,2013-01-05 14:52:00,
2013-01-05 09:53:00,38.4,24.1,30.24,NNW,338,5.6,10.1,56,0.00,,,0.00,WUHU216HW,2013-01-05 14:53:00,
2013-01-05 09:54:00,38.6,24.3,30.24,West,270,5.1,10.1,56,0.00,,,0.00,WUHU216HW,2013-01-05 14:54:00,
2013-01-05 09:56:00,38.7,24.4,30.24,NNW,338,4.5,10.1,56,0.00,,,0.00,WUHU216HW,2013-01-05 14:56:00,
2013-01-05 09:57:00,38.7,24.4,30.24,NNW,338,4.5,10.1,56,0.00,,,0.00,WUHU216HW,2013-01-05 14:57:00,
2013-01-05 09:58:00,38.7,24.4,30.24,North,0,3.6,10.1,56,0.00,,,0.00,WUHU216HW,2013-01-05 14:58:00,
2013-01-05 09:59:00,38.7,24.4,30.24,North,0,3.6,10.1,56,0.00,,,0.00,WUHU216HW,2013-01-05 14:59:00,
2013-01-05 10:01:00,38.9,24.1,30.24,WSW,248,13.4,13.4,55,0.00,,,0.00,WUHU216HW,2013-01-05 15:01:00,
2013-01-05 10:02:00,38.7,23.5,30.24,WNW,293,6.7,13.4,54,0.00,,,0.00,WUHU216HW,2013-01-05 15:02:00,
2013-01-05 10:03:00,38.7,23.5,30.24,WNW,293,7.2,13.4,54,0.00,,,0.00,WUHU216HW,2013-01-05 15:03:00,
2013-01-05 10:04:00,38.9,24.1,30.24,NW,315,2.9,13.4,55,0.00,,,0.00,WUHU216HW,2013-01-05 15:04:00,
2013-01-05 10:06:00,39.1,24.3,30.24,NW,315,6.3,13.4,55,0.00,,,0.00,WUHU216HW,2013-01-05 15:06:00,
2013-01-05 10:07:00,39.1,23.8,30.24,NNW,338,3.1,13.4,54,0.00,,,0.00,WUHU216HW,2013-01-05 15:07:00,
2013-01-05 10:08:00,39.1,23.8,30.24,WNW,293,1.1,13.4,54,0.00,,,0.00,WUHU216HW,2013-01-05 15:08:00,
2013-01-05 10:09:00,39.1,23.8,30.24,NNW,338,4.5,13.4,54,0.00,,,0.00,WUHU216HW,2013-01-05 15:09:00,
2013-01-05 10:12:00,39.1,23.8,30.24,NNW,338,6.5,7.2,54,0.00,,,0.00,WUHU216HW,2013-01-05 15:12:00,
2013-01-05 10:13:00,39.0,23.3,30.24,WSW,248,5.4,6.5,53,0.00,,,0.00,WUHU216HW,2013-01-05 15:13:00,
2013-01-05 10:14:00,39.2,24.0,30.24,WNW,293,3.8,6.5,54,0.00,,,0.00,WUHU216HW,2013-01-05 15:14:00,
2013-01-05 10:17:00,39.4,23.7,30.25,NNW,338,4.0,6.5,53,0.00,,,0.00,WUHU216HW,2013-01-05 15:17:00,
2013-01-05 10:18:00,39.5,23.8,30.24,SW,225,9.6,9.6,53,0.00,,,0.00,WUHU216HW,2013-01-05 15:18:00,
2013-01-05 10:19:00,39.7,24.4,30.25,NNW,338,5.6,9.6,54,0.00,,,0.00,WUHU216HW,2013-01-05 15:19:00,
2013-01-05 10:22:00,40.1,24.3,30.25,NNW,338,7.6,9.6,53,0.00,,,0.00,WUHU216HW,2013-01-05 15:22:00,
2013-01-05 10:23:00,40.1,23.9,30.25,North,0,6.9,9.6,52,0.00,,,0.00,WUHU216HW,2013-01-05 15:23:00,
2013-01-05 10:24:00,40.1,23.9,30.24,NNW,338,4.9,9.6,52,0.00,,,0.00,WUHU216HW,2013-01-05 15:24:00,
2013-01-05 10:27:00,40.1,23.9,30.24,NNW,338,4.9,9.6,52,0.00,,,0.00,WUHU216HW,2013-01-05 15:27:00,
2013-01-05 10:28:00,40.1,23.9,30.24,NNW,338,4.9,9.6,52,0.00,,,0.00,WUHU216HW,2013-01-05 15:28:00,
2013-01-05 10:29:00,40.1,23.9,30.24,NNW,338,4.9,7.6,52,0.00,,,0.00,WUHU216HW,2013-01-05 15:29:00,
2013-01-05 10:32:00,40.1,23.9,30.24,NNW,338,4.9,6.9,52,0.00,,,0.00,WUHU216HW,2013-01-05 15:32:00,
2013-01-05 10:33:00,40.1,23.9,30.24,NNW,338,4.9,6.9,52,0.00,,,0.00,WUHU216HW,2013-01-05 15:33:00,
2013-01-05 10:54:00,39.1,22.9,30.25,WSW,248,10.3,10.3,52,0.00,,,0.00,WUHU216HW,2013-01-05 15:54:00,
2013-01-05 10:59:00,39.4,23.2,30.25,NNW,338,6.5,10.3,52,0.00,,,0.00,WUHU216HW,2013-01-05 15:59:00,
2013-01-05 11:04:00,39.8,23.6,30.25,NNW,338,4.9,13.0,52,0.00,,,0.00,WUHU216HW,2013-01-05 16:04:00,
2013-01-05 11:09:00,39.8,23.6,30.25,WNW,293,13.4,13.4,52,0.00,,,0.00,WUHU216HW,2013-01-05 16:09:00,
2013-01-05 11:14:00,39.6,22.9,30.25,WNW,293,6.3,13.4,51,0.00,,,0.00,WUHU216HW,2013-01-05 16:14:00,
2013-01-05 11:15:00,39.6,22.9,30.25,WNW,293,6.3,13.4,51,0.00,,,0.00,WUHU216HW,2013-01-05 16:15:00,
2013-01-05 11:19:00,40.2,23.4,30.26,West,270,12.8,12.8,51,0.00,,,0.00,WUHU216HW,2013-01-05 16:19:00,
2013-01-05 11:20:00,40.2,23.4,30.26,West,270,12.8,12.8,51,0.00,,,0.00,WUHU216HW,2013-01-05 16:20:00,
2013-01-05 11:24:00,39.7,22.6,30.25,North,0,5.6,12.8,50,0.00,,,0.00,WUHU216HW,2013-01-05 16:24:00,
2013-01-05 11:25:00,39.7,22.6,30.25,North,0,5.6,12.8,50,0.00,,,0.00,WUHU216HW,2013-01-05 16:25:00,
2013-01-05 11:29:00,39.0,22.4,30.24,NNE,23,8.1,8.1,51,0.00,,,0.00,WUHU216HW,2013-01-05 16:29:00,
2013-01-05 11:30:00,39.0,22.4,30.24,NNE,23,8.1,8.1,51,0.00,,,0.00,WUHU216HW,2013-01-05 16:30:00,
2013-01-05 11:31:00,38.8,22.7,30.24,WNW,293,9.8,9.8,52,0.00,,,0.00,WUHU216HW,2013-01-05 16:31:00,
2013-01-05 11:35:00,39.0,22.9,30.23,North,0,9.2,9.8,52,0.00,,,0.00,WUHU216HW,2013-01-05 16:35:00,
2013-01-05 11:36:00,39.0,22.4,30.23,North,0,6.7,11.2,51,0.00,,,0.00,WUHU216HW,2013-01-05 16:36:00,
2013-01-05 11:40:00,39.0,22.4,30.23,North,0,9.6,11.2,51,0.00,,,0.00,WUHU216HW,2013-01-05 16:40:00,
2013-01-05 11:41:00,39.0,22.8,30.23,WNW,293,11.4,11.4,52,0.00,,,0.00,WUHU216HW,2013-01-05 16:41:00,
2013-01-05 11:45:00,38.8,22.2,30.23,NNW,338,4.7,11.6,51,0.00,,,0.00,WUHU216HW,2013-01-05 16:45:00,
2013-01-05 11:47:00,39.0,22.4,30.22,NNW,338,4.7,11.6,51,0.00,,,0.00,WUHU216HW,2013-01-05 16:47:00,
2013-01-05 11:50:00,39.0,22.3,30.22,NNW,338,10.5,11.6,51,0.00,,,0.00,WUHU216HW,2013-01-05 16:50:00,
2013-01-05 11:52:00,39.2,22.5,30.22,North,0,4.7,11.6,51,0.00,,,0.00,WUHU216HW,2013-01-05 16:52:00,
2013-01-05 11:55:00,39.3,23.1,30.22,North,0,5.1,10.5,52,0.00,,,0.00,WUHU216HW,2013-01-05 16:55:00,
2013-01-05 11:57:00,39.3,23.1,30.23,West,270,8.7,10.5,52,0.00,,,0.00,WUHU216HW,2013-01-05 16:57:00,
2013-01-05 12:00:00,39.7,23.0,30.23,North,0,8.9,12.3,51,0.00,,,0.00,WUHU216HW,2013-01-05 17:00:00,
2013-01-05 12:02:00,39.7,23.0,30.23,NNW,338,3.6,12.3,51,0.00,,,0.00,WUHU216HW,2013-01-05 17:02:00,
2013-01-05 12:05:00,39.7,22.5,30.23,NNW,338,11.4,12.3,50,0.00,,,0.00,WUHU216HW,2013-01-05 17:05:00,
2013-01-05 12:06:00,39.7,22.5,30.23,NNW,338,11.4,12.3,50,0.00,,,0.00,WUHU216HW,2013-01-05 17:06:00,
2013-01-05 12:07:00,39.2,22.0,30.23,NNW,338,7.6,12.3,50,0.00,,,0.00,WUHU216HW,2013-01-05 17:07:00,
2013-01-05 12:10:00,38.9,22.3,30.22,NNW,338,5.1,11.4,51,0.00,,,0.00,WUHU216HW,2013-01-05 17:10:00,
2013-01-05 12:11:00,38.9,22.3,30.22,NNW,338,5.1,11.4,51,0.00,,,0.00,WUHU216HW,2013-01-05 17:11:00,
2013-01-05 12:12:00,39.1,22.5,30.22,North,0,6.3,11.4,51,0.00,,,0.00,WUHU216HW,2013-01-05 17:12:00,
2013-01-05 12:15:00,39.1,22.5,30.22,WNW,293,6.3,8.3,51,0.00,,,0.00,WUHU216HW,2013-01-05 17:15:00,
2013-01-05 12:16:00,39.1,22.5,30.22,WNW,293,6.3,8.3,51,0.00,,,0.00,WUHU216HW,2013-01-05 17:16:00,
2013-01-05 12:17:00,39.2,22.1,30.22,North,0,4.3,8.3,50,0.00,,,0.00,WUHU216HW,2013-01-05 17:17:00,
2013-01-05 12:21:00,39.2,22.6,30.22,WNW,293,6.3,8.1,51,0.00,,,0.00,WUHU216HW,2013-01-05 17:21:00,
2013-01-05 12:22:00,39.2,22.6,30.22,NW,315,11.9,11.9,51,0.00,,,0.00,WUHU216HW,2013-01-05 17:22:00,
2013-01-05 12:25:00,39.4,22.3,30.21,North,0,7.6,11.9,50,0.00,,,0.00,WUHU216HW,2013-01-05 17:25:00,
2013-01-05 12:26:00,39.6,22.4,30.21,WNW,293,3.6,11.9,50,0.00,,,0.00,WUHU216HW,2013-01-05 17:26:00,
2013-01-05 12:27:00,39.6,22.4,30.21,WNW,293,3.6,11.9,50,0.00,,,0.00,WUHU216HW,2013-01-05 17:27:00,
2013-01-05 12:28:00,39.8,22.6,30.21,West,270,2.5,11.9,50,0.00,,,0.00,WUHU216HW,2013-01-05 17:28:00,
2013-01-05 12:31:00,40.1,22.9,30.20,North,0,7.6,11.9,50,0.00,,,0.00,WUHU216HW,2013-01-05 17:31:00,
2013-01-05 12:32:00,40.1,22.4,30.20,North,0,12.8,12.8,49,0.00,,,0.00,WUHU216HW,2013-01-05 17:32:00,
2013-01-05 12:33:00,40.1,22.4,30.20,North,0,12.8,12.8,49,0.00,,,0.00,WUHU216HW,2013-01-05 17:33:00,
2013-01-05 12:36:00,40.3,23.1,30.20,North,0,4.7,13.6,50,0.00,,,0.00,WUHU216HW,2013-01-05 17:36:00,
2013-01-05 12:37:00,40.3,22.6,30.20,NNW,338,8.5,13.6,49,0.00,,,0.00,WUHU216HW,2013-01-05 17:37:00,
2013-01-05 12:38:00,40.3,22.6,30.20,NNW,338,8.5,13.6,49,0.00,,,0.00,WUHU216HW,2013-01-05 17:38:00,
2013-01-05 12:41:00,39.8,22.6,30.20,NNE,23,5.6,13.6,50,0.00,,,0.00,WUHU216HW,2013-01-05 17:41:00,
2013-01-05 12:42:00,39.8,22.1,30.20,North,0,7.2,13.6,49,0.00,,,0.00,WUHU216HW,2013-01-05 17:42:00,
2013-01-05 12:43:00,39.6,22.4,30.20,NNW,338,7.8,13.4,50,0.00,,,0.00,WUHU216HW,2013-01-05 17:43:00,
2013-01-05 12:46:00,39.8,22.6,30.20,NW,315,8.1,13.4,50,0.00,,,0.00,WUHU216HW,2013-01-05 17:46:00,
2013-01-05 12:47:00,39.8,22.6,30.20,NW,315,8.1,13.4,50,0.00,,,0.00,WUHU216HW,2013-01-05 17:47:00,
2013-01-05 12:48:00,40.0,22.8,30.20,West,270,4.5,12.8,50,0.00,,,0.00,WUHU216HW,2013-01-05 17:48:00,
2013-01-05 12:51:00,40.3,23.1,30.20,NNW,338,7.2,12.8,50,0.00,,,0.00,WUHU216HW,2013-01-05 17:51:00,
2013-01-05 12:52:00,40.3,23.1,30.20,NNW,338,7.2,12.8,50,0.00,,,0.00,WUHU216HW,2013-01-05 17:52:00,
2013-01-05 12:53:00,40.3,22.6,30.20,NNW,338,4.7,12.8,49,0.00,,,0.00,WUHU216HW,2013-01-05 17:53:00,
2013-01-05 12:56:00,40.3,23.0,30.20,North,0,6.3,12.8,50,0.00,,,0.00,WUHU216HW,2013-01-05 17:56:00,
2013-01-05 12:57:00,40.3,23.0,30.20,North,0,6.3,12.8,50,0.00,,,0.00,WUHU216HW,2013-01-05 17:57:00,
2013-01-05 12:58:00,40.3,22.5,30.20,NW,315,5.8,7.2,49,0.00,,,0.00,WUHU216HW,2013-01-05 17:58:00,
2013-01-05 12:59:00,40.3,22.5,30.20,NNW,338,6.5,7.2,49,0.00,,,0.00,WUHU216HW,2013-01-05 17:59:00,
2013-01-05 13:02:00,40.0,22.8,30.20,NNW,338,9.6,9.6,50,0.00,,,0.00,WUHU216HW,2013-01-05 18:02:00,
2013-01-05 13:03:00,40.0,22.3,30.20,NNE,23,8.7,9.6,49,0.00,,,0.00,WUHU216HW,2013-01-05 18:03:00,
2013-01-05 13:04:00,40.0,22.3,30.20,NNW,338,7.6,9.6,49,0.00,,,0.00,WUHU216HW,2013-01-05 18:04:00,
2013-01-05 13:07:00,40.1,22.8,30.20,NNW,338,4.7,9.6,50,0.00,,,0.00,WUHU216HW,2013-01-05 18:07:00,
2013-01-05 13:08:00,40.3,22.5,30.21,NNW,338,6.0,9.6,49,0.00,,,0.00,WUHU216HW,2013-01-05 18:08:00,
2013-01-05 13:09:00,40.3,22.5,30.21,NNW,338,6.0,9.6,49,0.00,,,0.00,WUHU216HW,2013-01-05 18:09:00,
2013-01-05 13:12:00,40.4,22.7,30.20,NNW,338,4.9,9.2,49,0.00,,,0.00,WUHU216HW,2013-01-05 18:12:00,
2013-01-05 13:13:00,40.6,23.4,30.20,North,0,4.7,9.2,50,0.00,,,0.00,WUHU216HW,2013-01-05 18:13:00,
2013-01-05 13:14:00,40.6,23.4,30.20,North,0,4.7,9.2,50,0.00,,,0.00,WUHU216HW,2013-01-05 18:14:00,
2013-01-05 13:17:00,40.9,23.2,30.21,North,0,6.9,7.2,49,0.00,,,0.00,WUHU216HW,2013-01-05 18:17:00,
2013-01-05 13:18:00,40.9,23.2,30.20,North,0,6.3,7.2,49,0.00,,,0.00,WUHU216HW,2013-01-05 18:18:00,
2013-01-05 13:19:00,40.8,23.1,30.20,North,0,4.5,7.2,49,0.00,,,0.00,WUHU216HW,2013-01-05 18:19:00,
2013-01-05 13:22:00,40.2,22.5,30.20,North,0,6.3,7.8,49,0.00,,,0.00,WUHU216HW,2013-01-05 18:22:00,
2013-01-05 13:23:00,40.2,22.5,30.20,NNE,23,10.3,10.3,49,0.00,,,0.00,WUHU216HW,2013-01-05 18:23:00,
2013-01-05 13:24:00,40.2,22.5,30.20,NNE,23,10.3,10.3,49,0.00,,,0.00,WUHU216HW,2013-01-05 18:24:00,
2013-01-05 13:27:00,40.4,22.7,30.20,North,0,5.8,10.3,49,0.00,,,0.00,WUHU216HW,2013-01-05 18:27:00,
2013-01-05 13:28:00,40.4,22.7,30.20,North,0,5.8,10.3,49,0.00,,,0.00,WUHU216HW,2013-01-05 18:28:00,
2013-01-05 13:29:00,40.4,22.7,30.21,North,0,5.4,10.3,49,0.00,,,0.00,WUHU216HW,2013-01-05 18:29:00,
2013-01-05 13:32:00,40.4,22.7,30.20,NNW,338,6.7,10.3,49,0.00,,,0.00,WUHU216HW,2013-01-05 18:32:00,
2013-01-05 13:33:00,40.4,22.7,30.20,NNW,338,6.7,10.3,49,0.00,,,0.00,WUHU216HW,2013-01-05 18:33:00,
2013-01-05 13:34:00,40.2,22.5,30.20,North,0,6.0,6.7,49,0.00,,,0.00,WUHU216HW,2013-01-05 18:34:00,
2013-01-05 13:37:00,40.0,22.3,30.20,NNW,338,3.4,6.7,49,0.00,,,0.00,WUHU216HW,2013-01-05 18:37:00,
2013-01-05 13:38:00,40.0,22.3,30.20,NNW,338,3.4,6.7,49,0.00,,,0.00,WUHU216HW,2013-01-05 18:38:00,
2013-01-05 13:39:00,40.2,22.5,30.20,WNW,293,5.4,6.7,49,0.00,,,0.00,WUHU216HW,2013-01-05 18:39:00,
2013-01-05 13:43:00,40.8,24.0,30.21,North,0,3.4,6.3,51,0.00,,,0.00,WUHU216HW,2013-01-05 18:43:00,
2013-01-05 13:44:00,40.9,23.6,30.21,North,0,5.1,6.3,50,0.00,,,0.00,WUHU216HW,2013-01-05 18:44:00,
2013-01-05 13:48:00,41.1,23.3,30.21,North,0,4.0,5.4,49,0.00,,,0.00,WUHU216HW,2013-01-05 18:48:00,
2013-01-05 13:49:00,41.1,23.3,30.21,NNW,338,3.6,5.1,49,0.00,,,0.00,WUHU216HW,2013-01-05 18:49:00,
2013-01-05 13:50:00,40.9,23.1,30.21,North,0,3.4,5.1,49,0.00,,,0.00,WUHU216HW,2013-01-05 18:50:00,
2013-01-05 13:53:00,41.1,23.8,30.21,NNW,338,5.6,5.6,50,0.00,,,0.00,WUHU216HW,2013-01-05 18:53:00,
2013-01-05 13:54:00,41.3,24.0,30.21,North,0,2.9,5.6,50,0.00,,,0.00,WUHU216HW,2013-01-05 18:54:00,
2013-01-05 13:55:00,41.5,23.7,30.21,North,0,2.5,5.6,49,0.00,,,0.00,WUHU216HW,2013-01-05 18:55:00,
2013-01-05 13:58:00,41.7,23.9,30.21,WNW,293,5.4,5.6,49,0.00,,,0.00,WUHU216HW,2013-01-05 18:58:00,
2013-01-05 13:59:00,41.8,24.0,30.21,NW,315,4.3,5.6,49,0.00,,,0.00,WUHU216HW,2013-01-05 18:59:00,
2013-01-05 14:00:00,41.8,24.0,30.21,NW,315,2.5,5.6,49,0.00,,,0.00,WUHU216HW,2013-01-05 19:00:00,
2013-01-05 14:03:00,42.0,24.2,30.21,NW,315,2.9,5.4,49,0.00,,,0.00,WUHU216HW,2013-01-05 19:03:00,
2013-01-05 14:04:00,42.0,24.2,30.21,NW,315,2.9,5.4,49,0.00,,,0.00,WUHU216HW,2013-01-05 19:04:00,
2013-01-05 14:05:00,42.2,24.3,30.21,NW,315,5.1,5.8,49,0.00,,,0.00,WUHU216HW,2013-01-05 19:05:00,
2013-01-05 14:08:00,42.2,24.3,30.21,WNW,293,2.7,5.8,49,0.00,,,0.00,WUHU216HW,2013-01-05 19:08:00,
2013-01-05 14:09:00,42.2,24.3,30.21,WNW,293,2.7,5.8,49,0.00,,,0.00,WUHU216HW,2013-01-05 19:09:00,
2013-01-05 14:10:00,42.2,24.3,30.21,SSW,203,2.5,5.8,49,0.00,,,0.00,WUHU216HW,2013-01-05 19:10:00,
2013-01-05 14:13:00,42.0,23.6,30.21,WNW,293,2.5,5.8,48,0.00,,,0.00,WUHU216HW,2013-01-05 19:13:00,
2013-01-05 14:14:00,42.0,24.2,30.21,NNE,23,3.6,5.4,49,0.00,,,0.00,WUHU216HW,2013-01-05 19:14:00,
2013-01-05 14:15:00,41.8,24.0,30.21,NNW,338,4.7,5.4,49,0.00,,,0.00,WUHU216HW,2013-01-05 19:15:00,
2013-01-05 14:18:00,41.7,23.4,30.21,NNW,338,3.6,4.9,48,0.00,,,0.00,WUHU216HW,2013-01-05 19:18:00,
2013-01-05 14:20:00,41.7,23.9,30.21,West,270,6.3,6.3,49,0.00,,,0.00,WUHU216HW,2013-01-05 19:20:00,
2013-01-05 14:23:00,41.5,23.7,30.21,NNW,338,5.4,6.3,49,0.00,,,0.00,WUHU216HW,2013-01-05 19:23:00,
2013-01-05 14:25:00,41.5,23.7,30.21,NNW,338,3.4,6.3,49,0.00,,,0.00,WUHU216HW,2013-01-05 19:25:00,
2013-01-05 14:28:00,41.3,23.0,30.21,NNW,338,4.3,6.9,48,0.00,,,0.00,WUHU216HW,2013-01-05 19:28:00,
2013-01-05 14:30:00,41.1,22.8,30.21,NNW,338,6.5,6.9,48,0.00,,,0.00,WUHU216HW,2013-01-05 19:30:00,
2013-01-05 14:33:00,40.9,22.6,30.21,NNW,338,1.8,6.9,48,0.00,,,0.00,WUHU216HW,2013-01-05 19:33:00,
2013-01-05 14:35:00,40.9,23.1,30.21,NNW,338,4.7,6.9,49,0.00,,,0.00,WUHU216HW,2013-01-05 19:35:00,
2013-01-05 14:38:00,40.9,23.1,30.21,NW,315,3.6,6.5,49,0.00,,,0.00,WUHU216HW,2013-01-05 19:38:00,
2013-01-05 14:40:00,40.9,23.1,30.21,NW,315,2.9,4.7,49,0.00,,,0.00,WUHU216HW,2013-01-05 19:40:00,
2013-01-05 14:41:00,40.9,23.1,30.22,North,0,4.0,4.7,49,0.00,,,0.00,WUHU216HW,2013-01-05 19:41:00,
2013-01-05 14:43:00,40.8,23.0,30.21,NW,315,2.7,4.7,49,0.00,,,0.00,WUHU216HW,2013-01-05 19:43:00,
2013-01-05 14:45:00,40.6,22.9,30.22,NNW,338,2.7,4.5,49,0.00,,,0.00,WUHU216HW,2013-01-05 19:45:00,
2013-01-05 14:46:00,40.6,22.9,30.22,NNW,338,2.7,4.5,49,0.00,,,0.00,WUHU216HW,2013-01-05 19:46:00,
2013-01-05 14:49:00,40.8,23.0,30.22,North,0,6.3,6.3,49,0.00,,,0.00,WUHU216HW,2013-01-05 19:49:00,
2013-01-05 14:50:00,41.3,23.5,30.22,NNW,338,5.4,6.3,49,0.00,,,0.00,WUHU216HW,2013-01-05 19:50:00,
2013-01-05 14:51:00,41.3,23.5,30.22,NNW,338,5.4,6.3,49,0.00,,,0.00,WUHU216HW,2013-01-05 19:51:00,
2013-01-05 14:54:00,42.0,23.6,30.22,NNW,338,6.7,6.7,48,0.00,,,0.00,WUHU216HW,2013-01-05 19:54:00,
2013-01-05 14:55:00,41.8,23.5,30.22,WNW,293,3.4,6.7,48,0.00,,,0.00,WUHU216HW,2013-01-05 19:55:00,
2013-01-05 14:56:00,41.8,23.5,30.22,WNW,293,3.4,6.7,48,0.00,,,0.00,WUHU216HW,2013-01-05 19:56:00,
2013-01-05 14:59:00,41.5,23.2,30.22,NNW,338,2.2,6.7,48,0.00,,,0.00,WUHU216HW,2013-01-05 19:59:00,
2013-01-05 15:00:00,41.3,23.5,30.22,West,270,3.1,6.7,49,0.00,,,0.00,WUHU216HW,2013-01-05 20:00:00,
2013-01-05 15:01:00,41.1,23.3,30.22,NW,315,2.5,6.7,49,0.00,,,0.00,WUHU216HW,2013-01-05 20:01:00,
2013-01-05 15:04:00,40.9,23.1,30.22,NNW,338,5.6,5.6,49,0.00,,,0.00,WUHU216HW,2013-01-05 20:04:00,
2013-01-05 15:05:00,40.8,23.0,30.23,WNW,293,3.4,5.6,49,0.00,,,0.00,WUHU216HW,2013-01-05 20:05:00,
2013-01-05 15:06:00,40.9,23.1,30.23,NW,315,4.7,5.6,49,0.00,,,0.00,WUHU216HW,2013-01-05 20:06:00,
2013-01-05 15:09:00,41.8,24.0,30.22,West,270,4.3,5.6,49,0.00,,,0.00,WUHU216HW,2013-01-05 20:09:00,
2013-01-05 15:11:00,42.4,24.5,30.22,NNW,338,4.0,5.6,49,0.00,,,0.00,WUHU216HW,2013-01-05 20:11:00,
2013-01-05 15:14:00,42.4,24.0,30.22,NW,315,4.5,4.7,48,0.00,,,0.00,WUHU216HW,2013-01-05 20:14:00,
2013-01-05 15:16:00,41.8,23.0,30.22,North,0,4.3,5.4,47,0.00,,,0.00,WUHU216HW,2013-01-05 20:16:00,
2013-01-05 15:19:00,40.9,22.1,30.22,West,270,4.5,5.4,47,0.00,,,0.00,WUHU216HW,2013-01-05 20:19:00,
2013-01-05 15:21:00,40.6,22.4,30.22,West,270,2.9,5.4,48,0.00,,,0.00,WUHU216HW,2013-01-05 20:21:00,
2013-01-05 15:24:00,40.2,22.0,30.22,NNW,338,2.2,5.4,48,0.00,,,0.00,WUHU216HW,2013-01-05 20:24:00,
2013-01-05 15:26:00,39.7,22.0,30.22,North,0,3.4,4.5,49,0.00,,,0.00,WUHU216HW,2013-01-05 20:26:00,
2013-01-05 15:27:00,39.7,22.0,30.22,North,0,3.4,4.5,49,0.00,,,0.00,WUHU216HW,2013-01-05 20:27:00,
2013-01-05 15:29:00,39.5,21.9,30.22,North,0,2.5,6.5,49,0.00,,,0.00,WUHU216HW,2013-01-05 20:29:00,
2013-01-05 15:31:00,39.3,21.7,30.22,NW,315,4.5,6.5,49,0.00,,,0.00,WUHU216HW,2013-01-05 20:31:00,
2013-01-05 15:32:00,39.1,21.5,30.22,NNW,338,3.4,6.5,49,0.00,,,0.00,WUHU216HW,2013-01-05 20:32:00,
2013-01-05 15:34:00,39.1,21.5,30.22,NW,315,2.0,6.5,49,0.00,,,0.00,WUHU216HW,2013-01-05 20:34:00,
2013-01-05 15:36:00,39.1,21.5,30.22,NNW,338,5.4,6.5,49,0.00,,,0.00,WUHU216HW,2013-01-05 20:36:00,
2013-01-05 15:37:00,39.1,22.0,30.22,NW,315,4.7,6.5,50,0.00,,,0.00,WUHU216HW,2013-01-05 20:37:00,
2013-01-05 15:40:00,39.0,21.4,30.22,West,270,1.8,5.4,49,0.00,,,0.00,WUHU216HW,2013-01-05 20:40:00,
2013-01-05 15:41:00,39.0,21.9,30.22,WNW,293,1.8,5.4,50,0.00,,,0.00,WUHU216HW,2013-01-05 20:41:00,
2013-01-05 15:42:00,38.8,21.7,30.22,NW,315,5.6,5.6,50,0.00,,,0.00,WUHU216HW,2013-01-05 20:42:00,
2013-01-05 15:45:00,38.8,21.7,30.22,NNW,338,4.9,5.6,50,0.00,,,0.00,WUHU216HW,2013-01-05 20:45:00,
2013-01-05 15:46:00,38.6,21.5,30.22,NNW,338,3.1,5.6,50,0.00,,,0.00,WUHU216HW,2013-01-05 20:46:00,
2013-01-05 15:47:00,38.6,21.5,30.23,North,0,2.9,5.6,50,0.00,,,0.00,WUHU216HW,2013-01-05 20:47:00,
2013-01-05 15:50:00,38.4,21.4,30.22,NNW,338,2.9,5.6,50,0.00,,,0.00,WUHU216HW,2013-01-05 20:50:00,
2013-01-05 15:51:00,38.4,21.4,30.22,NW,315,3.1,5.6,50,0.00,,,0.00,WUHU216HW,2013-01-05 20:51:00,
2013-01-05 15:52:00,38.4,21.4,30.22,WNW,293,2.0,4.9,50,0.00,,,0.00,WUHU216HW,2013-01-05 20:52:00,
2013-01-05 15:55:00,38.1,21.6,30.21,WNW,293,3.4,4.7,51,0.00,,,0.00,WUHU216HW,2013-01-05 20:55:00,
2013-01-05 15:56:00,38.1,21.6,30.21,WNW,293,3.4,4.7,51,0.00,,,0.00,WUHU216HW,2013-01-05 20:56:00,
2013-01-05 15:57:00,38.2,21.6,30.22,NW,315,2.5,4.7,51,0.00,,,0.00,WUHU216HW,2013-01-05 20:57:00,
2013-01-05 16:00:00,38.2,21.6,30.22,NNE,23,1.3,4.7,51,0.00,,,0.00,WUHU216HW,2013-01-05 21:00:00,
2013-01-05 16:01:00,38.0,21.4,30.22,North,0,0.4,4.7,51,0.00,,,0.00,WUHU216HW,2013-01-05 21:01:00,
2013-01-05 16:02:00,38.0,21.4,30.22,West,270,0.7,4.7,51,0.00,,,0.00,WUHU216HW,2013-01-05 21:02:00,
2013-01-05 16:05:00,37.8,21.2,30.23,West,270,0.4,2.5,51,0.00,,,0.00,WUHU216HW,2013-01-05 21:05:00,
2013-01-05 16:06:00,37.8,21.2,30.23,West,270,0.9,2.5,51,0.00,,,0.00,WUHU216HW,2013-01-05 21:06:00,
2013-01-05 16:07:00,37.6,21.0,30.23,West,270,0.9,1.8,51,0.00,,,0.00,WUHU216HW,2013-01-05 21:07:00,
2013-01-05 16:08:00,37.6,21.0,30.23,West,270,0.9,1.8,51,0.00,,,0.00,WUHU216HW,2013-01-05 21:08:00,
2013-01-05 16:10:00,37.4,20.8,30.23,NNW,338,2.2,3.4,51,0.00,,,0.00,WUHU216HW,2013-01-05 21:10:00,
2013-01-05 16:11:00,37.4,21.3,30.23,NW,315,3.4,3.4,52,0.00,,,0.00,WUHU216HW,2013-01-05 21:11:00,
2013-01-05 16:12:00,37.4,21.3,30.23,NW,315,3.4,3.4,52,0.00,,,0.00,WUHU216HW,2013-01-05 21:12:00,
2013-01-05 16:13:00,37.4,21.3,30.23,NNW,338,1.8,3.4,52,0.00,,,0.00,WUHU216HW,2013-01-05 21:13:00,
2013-01-05 16:15:00,37.3,21.2,30.22,NNW,338,1.6,4.3,52,0.00,,,0.00,WUHU216HW,2013-01-05 21:15:00,
2013-01-05 16:17:00,37.1,21.0,30.23,West,270,1.8,4.3,52,0.00,,,0.00,WUHU216HW,2013-01-05 21:17:00,
2013-01-05 16:18:00,37.1,21.0,30.23,NNW,338,0.7,4.3,52,0.00,,,0.00,WUHU216HW,2013-01-05 21:18:00,
2013-01-05 16:20:00,36.9,20.9,30.23,North,0,0.7,4.3,52,0.00,,,0.00,WUHU216HW,2013-01-05 21:20:00,
2013-01-05 16:22:00,36.9,20.9,30.23,WSW,248,1.1,4.3,52,0.00,,,0.00,WUHU216HW,2013-01-05 21:22:00,
2013-01-05 16:23:00,36.7,20.7,30.23,West,270,0.4,4.3,52,0.00,,,0.00,WUHU216HW,2013-01-05 21:23:00,
2013-01-05 16:25:00,36.7,20.7,30.23,West,270,1.1,2.0,52,0.00,,,0.00,WUHU216HW,2013-01-05 21:25:00,
2013-01-05 16:27:00,36.5,21.0,30.23,NW,315,2.5,2.5,53,0.00,,,0.00,WUHU216HW,2013-01-05 21:27:00,
2013-01-05 16:28:00,36.5,21.0,30.23,NNW,338,2.5,2.5,53,0.00,,,0.00,WUHU216HW,2013-01-05 21:28:00,
2013-01-05 16:31:00,36.4,20.9,30.23,NW,315,1.8,2.5,53,0.00,,,0.00,WUHU216HW,2013-01-05 21:31:00,
2013-01-05 16:32:00,36.2,20.7,30.23,WNW,293,2.2,2.5,53,0.00,,,0.00,WUHU216HW,2013-01-05 21:32:00,
2013-01-05 16:33:00,36.2,20.7,30.23,North,0,0.7,2.5,53,0.00,,,0.00,WUHU216HW,2013-01-05 21:33:00,
2013-01-05 16:36:00,36.0,20.5,30.23,North,0,0.7,2.5,53,0.00,,,0.00,WUHU216HW,2013-01-05 21:36:00,
2013-01-05 16:37:00,35.8,20.3,30.23,North,0,0.4,2.5,53,0.00,,,0.00,WUHU216HW,2013-01-05 21:37:00,
2013-01-05 16:38:00,35.8,20.8,30.23,North,0,0.0,2.2,54,0.00,,,0.00,WUHU216HW,2013-01-05 21:38:00,
2013-01-05 16:42:00,35.5,20.5,30.23,NW,315,1.1,2.2,54,0.00,,,0.00,WUHU216HW,2013-01-05 21:42:00,
2013-01-05 16:43:00,35.3,20.3,30.23,NW,315,1.1,1.1,54,0.00,,,0.00,WUHU216HW,2013-01-05 21:43:00,
2013-01-05 16:47:00,35.1,20.1,30.23,NW,315,1.6,2.0,54,0.00,,,0.00,WUHU216HW,2013-01-05 21:47:00,
2013-01-05 16:48:00,34.7,19.8,30.23,NW,315,2.2,2.2,54,0.00,,,0.00,WUHU216HW,2013-01-05 21:48:00,
2013-01-05 16:49:00,34.7,19.8,30.23,NW,315,2.2,2.2,54,0.00,,,0.00,WUHU216HW,2013-01-05 21:49:00,
2013-01-05 16:52:00,34.6,20.1,30.23,WNW,293,2.0,2.2,55,0.00,,,0.00,WUHU216HW,2013-01-05 21:52:00,
2013-01-05 16:54:00,34.6,20.1,30.22,NNW,338,0.9,2.2,55,0.00,,,0.00,WUHU216HW,2013-01-05 21:54:00,
2013-01-05 16:57:00,34.2,21.0,30.23,ESE,113,0.9,2.2,58,0.00,,,0.00,WUHU216HW,2013-01-05 21:57:00,
2013-01-05 16:59:00,34.1,20.8,30.23,East,90,0.4,2.2,58,0.00,,,0.00,WUHU216HW,2013-01-05 21:59:00,
2013-01-05 17:02:00,33.9,20.7,30.23,NNW,338,0.7,1.6,58,0.00,,,0.00,WUHU216HW,2013-01-05 22:02:00,
2013-01-05 17:04:00,33.9,20.3,30.23,NW,315,2.5,2.5,57,0.00,,,0.00,WUHU216HW,2013-01-05 22:04:00,
2013-01-05 17:07:00,33.9,20.7,30.23,West,270,0.9,2.5,58,0.00,,,0.00,WUHU216HW,2013-01-05 22:07:00,
2013-01-05 17:09:00,33.9,20.7,30.23,West,270,0.7,2.5,58,0.00,,,0.00,WUHU216HW,2013-01-05 22:09:00,
2013-01-05 17:12:00,33.6,20.8,30.24,East,90,1.3,2.5,59,0.00,,,0.00,WUHU216HW,2013-01-05 22:12:00,
2013-01-05 17:14:00,33.4,20.6,30.24,ESE,113,0.0,2.5,59,0.00,,,0.00,WUHU216HW,2013-01-05 22:14:00,
2013-01-05 17:17:00,33.2,20.4,30.24,NW,315,1.8,2.2,59,0.00,,,0.00,WUHU216HW,2013-01-05 22:17:00,
2013-01-05 17:19:00,33.2,20.0,30.23,NW,315,1.8,2.7,58,0.00,,,0.00,WUHU216HW,2013-01-05 22:19:00,
2013-01-05 17:23:00,33.2,20.0,30.23,NE,45,0.7,2.7,58,0.00,,,0.00,WUHU216HW,2013-01-05 22:23:00,
2013-01-05 17:24:00,33.0,21.1,30.24,East,90,2.0,2.7,61,0.00,,,0.00,WUHU216HW,2013-01-05 22:24:00,
2013-01-05 17:25:00,33.0,21.1,30.24,East,90,2.0,2.7,61,0.00,,,0.00,WUHU216HW,2013-01-05 22:25:00,
2013-01-05 17:28:00,32.7,20.4,30.24,East,90,2.2,2.9,60,0.00,,,0.00,WUHU216HW,2013-01-05 22:28:00,
2013-01-05 17:29:00,32.5,20.2,30.24,East,90,0.2,2.9,60,0.00,,,0.00,WUHU216HW,2013-01-05 22:29:00,
2013-01-05 17:30:00,32.5,20.2,30.24,East,90,0.2,2.9,60,0.00,,,0.00,WUHU216HW,2013-01-05 22:30:00,
2013-01-05 17:33:00,32.5,20.6,30.24,WNW,293,3.1,3.4,61,0.00,,,0.00,WUHU216HW,2013-01-05 22:33:00,
2013-01-05 17:34:00,32.5,20.6,30.23,WNW,293,3.6,3.6,61,0.00,,,0.00,WUHU216HW,2013-01-05 22:34:00,
2013-01-05 17:35:00,32.5,20.6,30.23,WNW,293,3.6,3.6,61,0.00,,,0.00,WUHU216HW,2013-01-05 22:35:00,
2013-01-05 17:38:00,32.3,20.4,30.25,East,90,2.2,3.6,61,0.00,,,0.00,WUHU216HW,2013-01-05 22:38:00,
2013-01-05 17:39:00,32.1,20.6,30.25,East,90,2.2,3.6,62,0.00,,,0.00,WUHU216HW,2013-01-05 22:39:00,
2013-01-05 17:40:00,32.1,20.6,30.25,East,90,2.2,3.6,62,0.00,,,0.00,WUHU216HW,2013-01-05 22:40:00,
2013-01-05 17:43:00,31.9,20.4,30.25,ENE,68,0.7,3.6,62,0.00,,,0.00,WUHU216HW,2013-01-05 22:43:00,
2013-01-05 17:44:00,31.9,20.4,30.25,ENE,68,0.0,2.2,62,0.00,,,0.00,WUHU216HW,2013-01-05 22:44:00,
2013-01-05 17:45:00,31.9,20.4,30.25,ENE,68,0.0,2.2,62,0.00,,,0.00,WUHU216HW,2013-01-05 22:45:00,
2013-01-05 17:48:00,31.7,20.2,30.24,WNW,293,2.9,2.9,62,0.00,,,0.00,WUHU216HW,2013-01-05 22:48:00,
2013-01-05 17:49:00,31.5,20.4,30.24,WNW,293,2.2,2.9,63,0.00,,,0.00,WUHU216HW,2013-01-05 22:49:00,
2013-01-05 17:50:00,31.5,20.4,30.24,WNW,293,2.2,2.9,63,0.00,,,0.00,WUHU216HW,2013-01-05 22:50:00,
2013-01-05 17:51:00,31.5,20.4,30.24,WNW,293,1.8,2.9,63,0.00,,,0.00,WUHU216HW,2013-01-05 22:51:00,
2013-01-05 17:53:00,31.3,20.2,30.24,East,90,2.0,2.9,63,0.00,,,0.00,WUHU216HW,2013-01-05 22:53:00,
2013-01-05 17:54:00,31.3,20.6,30.24,East,90,2.2,2.9,64,0.00,,,0.00,WUHU216HW,2013-01-05 22:54:00,
2013-01-05 17:55:00,31.3,20.6,30.24,East,90,2.2,2.9,64,0.00,,,0.00,WUHU216HW,2013-01-05 22:55:00,
2013-01-05 17:56:00,31.2,20.8,30.24,ESE,113,1.8,2.9,65,0.00,,,0.00,WUHU216HW,2013-01-05 22:56:00,
2013-01-05 17:58:00,31.2,20.5,30.25,ESE,113,0.4,2.2,64,0.00,,,0.00,WUHU216HW,2013-01-05 22:58:00,
2013-01-05 17:59:00,31.0,20.3,30.25,ESE,113,0.0,2.2,64,0.00,,,0.00,WUHU216HW,2013-01-05 22:59:00,
2013-01-05 18:00:00,31.0,20.3,30.24,ESE,113,0.0,2.2,64,0.00,,,0.00,WUHU216HW,2013-01-05 23:00:00,
2013-01-05 18:01:00,31.0,20.3,30.24,ESE,113,0.0,2.2,64,0.00,,,0.00,WUHU216HW,2013-01-05 23:01:00,
2013-01-05 18:04:00,31.0,20.3,30.24,WNW,293,3.4,3.4,64,0.00,,,0.00,WUHU216HW,2013-01-05 23:04:00,
2013-01-05 18:05:00,31.0,20.3,30.24,NW,315,0.4,3.4,64,0.00,,,0.00,WUHU216HW,2013-01-05 23:05:00,
2013-01-05 18:06:00,31.0,21.0,30.24,ESE,113,1.1,3.4,66,0.00,,,0.00,WUHU216HW,2013-01-05 23:06:00,
2013-01-05 18:09:00,30.8,21.2,30.25,ESE,113,2.0,3.4,67,0.00,,,0.00,WUHU216HW,2013-01-05 23:09:00,
2013-01-05 18:10:00,30.8,21.2,30.25,ESE,113,1.3,3.4,67,0.00,,,0.00,WUHU216HW,2013-01-05 23:10:00,
2013-01-05 18:11:00,30.8,21.2,30.25,ESE,113,1.3,3.4,67,0.00,,,0.00,WUHU216HW,2013-01-05 23:11:00,
2013-01-05 18:14:00,30.8,20.5,30.25,South,180,0.2,2.5,65,0.00,,,0.00,WUHU216HW,2013-01-05 23:14:00,
2013-01-05 18:15:00,30.8,20.9,30.25,West,270,2.7,2.7,66,0.00,,,0.00,WUHU216HW,2013-01-05 23:15:00,
2013-01-05 18:16:00,30.8,20.9,30.25,West,270,2.7,2.7,66,0.00,,,0.00,WUHU216HW,2013-01-05 23:16:00,
2013-01-05 18:19:00,30.6,20.3,30.25,NW,315,0.0,2.7,65,0.00,,,0.00,WUHU216HW,2013-01-05 23:19:00,
2013-01-05 18:21:00,30.7,20.3,30.25,NW,315,0.7,2.7,65,0.00,,,0.00,WUHU216HW,2013-01-05 23:21:00,
2013-01-05 18:24:00,30.4,20.4,30.25,SE,135,0.0,2.7,66,0.00,,,0.00,WUHU216HW,2013-01-05 23:24:00,
2013-01-05 18:26:00,30.4,20.4,30.25,SE,135,0.0,2.0,66,0.00,,,0.00,WUHU216HW,2013-01-05 23:26:00,
2013-01-05 18:29:00,30.2,19.9,30.25,SE,135,0.0,1.1,65,0.00,,,0.00,WUHU216HW,2013-01-05 23:29:00,
2013-01-05 18:31:00,30.0,20.1,30.25,SE,135,0.9,0.9,66,0.00,,,0.00,WUHU216HW,2013-01-05 23:31:00,
2013-01-05 18:35:00,29.8,19.9,30.25,SE,135,0.0,0.9,66,0.00,,,0.00,WUHU216HW,2013-01-05 23:35:00,
2013-01-05 18:36:00,29.8,19.9,30.25,SE,135,0.0,0.9,66,0.00,,,0.00,WUHU216HW,2013-01-05 23:36:00,
2013-01-05 18:37:00,29.8,19.9,30.25,SE,135,0.0,0.9,66,0.00,,,0.00,WUHU216HW,2013-01-05 23:37:00,
2013-01-05 18:40:00,29.6,19.7,30.25,West,270,0.7,1.1,66,0.00,,,0.00,WUHU216HW,2013-01-05 23:40:00,
2013-01-05 18:41:00,29.6,19.7,30.25,West,270,0.0,1.1,66,0.00,,,0.00,WUHU216HW,2013-01-05 23:41:00,
2013-01-05 18:42:00,29.6,19.7,30.25,West,270,0.0,1.1,66,0.00,,,0.00,WUHU216HW,2013-01-05 23:42:00,
2013-01-05 18:46:00,29.5,19.6,30.26,South,180,1.1,1.1,66,0.00,,,0.00,WUHU216HW,2013-01-05 23:46:00,
2013-01-05 18:47:00,29.3,19.8,30.25,SE,135,1.1,1.1,67,0.00,,,0.00,WUHU216HW,2013-01-05 23:47:00,
2013-01-05 18:51:00,29.1,19.6,30.24,SSE,158,0.7,1.1,67,0.00,,,0.00,WUHU216HW,2013-01-05 23:51:00,
2013-01-05 18:52:00,29.1,19.6,30.24,SSE,158,0.0,1.1,67,0.00,,,0.00,WUHU216HW,2013-01-05 23:52:00,
2013-01-05 18:56:00,29.2,19.3,30.25,SW,225,0.0,1.3,66,0.00,,,0.00,WUHU216HW,2013-01-05 23:56:00,
2013-01-05 18:57:00,29.2,19.3,30.25,SW,225,0.0,1.3,66,0.00,,,0.00,WUHU216HW,2013-01-05 23:57:00,
2013-01-05 19:01:00,28.8,19.3,30.25,SW,225,0.0,1.3,67,0.00,,,0.00,WUHU216HW,2013-01-06 00:01:00,
2013-01-05 19:02:00,28.8,18.9,30.25,SW,225,0.0,1.3,66,0.00,,,0.00,WUHU216HW,2013-01-06 00:02:00,
2013-01-05 19:06:00,28.7,19.2,30.25,WNW,293,0.4,2.5,67,0.00,,,0.00,WUHU216HW,2013-01-06 00:06:00,
2013-01-05 19:07:00,28.7,19.2,30.25,WNW,293,0.4,2.5,67,0.00,,,0.00,WUHU216HW,2013-01-06 00:07:00,
2013-01-05 19:08:00,28.5,19.3,30.25,East,90,0.4,2.5,68,0.00,,,0.00,WUHU216HW,2013-01-06 00:08:00,
2013-01-05 19:11:00,28.5,20.0,30.25,ESE,113,1.1,2.5,70,0.00,,,0.00,WUHU216HW,2013-01-06 00:11:00,
2013-01-05 19:12:00,28.5,20.0,30.25,ESE,113,1.1,2.5,70,0.00,,,0.00,WUHU216HW,2013-01-06 00:12:00,
2013-01-05 19:13:00,28.5,19.7,30.25,SE,135,0.9,2.5,69,0.00,,,0.00,WUHU216HW,2013-01-06 00:13:00,
2013-01-05 19:16:00,28.3,19.8,30.25,West,270,1.8,1.8,70,0.00,,,0.00,WUHU216HW,2013-01-06 00:16:00,
2013-01-05 19:17:00,28.3,19.8,30.25,West,270,1.8,1.8,70,0.00,,,0.00,WUHU216HW,2013-01-06 00:17:00,
2013-01-05 19:18:00,28.5,19.7,30.25,West,270,1.1,1.8,69,0.00,,,0.00,WUHU216HW,2013-01-06 00:18:00,
2013-01-05 19:21:00,28.3,19.2,30.25,West,270,0.0,1.8,68,0.00,,,0.00,WUHU216HW,2013-01-06 00:21:00,
2013-01-05 19:22:00,28.3,19.2,30.25,West,270,0.0,1.8,68,0.00,,,0.00,WUHU216HW,2013-01-06 00:22:00,
2013-01-05 19:23:00,28.3,19.2,30.25,NNE,23,0.7,1.8,68,0.00,,,0.00,WUHU216HW,2013-01-06 00:23:00,
2013-01-05 19:26:00,28.2,19.7,30.25,NNW,338,1.3,1.3,70,0.00,,,0.00,WUHU216HW,2013-01-06 00:26:00,
2013-01-05 19:27:00,28.2,19.7,30.25,NNW,338,1.3,1.3,70,0.00,,,0.00,WUHU216HW,2013-01-06 00:27:00,
2013-01-05 19:28:00,28.2,19.4,30.25,NNW,338,1.8,1.8,69,0.00,,,0.00,WUHU216HW,2013-01-06 00:28:00,
2013-01-05 19:32:00,28.2,20.4,30.25,SSE,158,1.3,1.8,72,0.00,,,0.00,WUHU216HW,2013-01-06 00:32:00,
2013-01-05 19:33:00,28.2,20.4,30.25,SE,135,1.1,1.8,72,0.00,,,0.00,WUHU216HW,2013-01-06 00:33:00,
2013-01-05 19:34:00,28.0,19.8,30.25,SE,135,0.4,1.8,71,0.00,,,0.00,WUHU216HW,2013-01-06 00:34:00,
2013-01-05 19:37:00,28.0,19.5,30.24,SSE,158,0.0,1.8,70,0.00,,,0.00,WUHU216HW,2013-01-06 00:37:00,
2013-01-05 19:38:00,28.0,19.5,30.24,SSE,158,0.0,1.3,70,0.00,,,0.00,WUHU216HW,2013-01-06 00:38:00,
2013-01-05 19:39:00,28.0,19.5,30.24,SSE,158,0.0,1.3,70,0.00,,,0.00,WUHU216HW,2013-01-06 00:39:00,
2013-01-05 19:42:00,28.0,19.5,30.24,SSE,158,0.0,1.1,70,0.00,,,0.00,WUHU216HW,2013-01-06 00:42:00,
2013-01-05 19:43:00,28.0,19.5,30.24,ESE,113,0.7,0.7,70,0.00,,,0.00,WUHU216HW,2013-01-06 00:43:00,
2013-01-05 19:44:00,28.0,19.9,30.24,ESE,113,0.7,0.7,71,0.00,,,0.00,WUHU216HW,2013-01-06 00:44:00,
2013-01-05 19:47:00,27.9,19.5,30.24,ESE,113,0.0,0.7,70,0.00,,,0.00,WUHU216HW,2013-01-06 00:47:00,
2013-01-05 19:48:00,27.9,19.5,30.24,SW,225,1.1,1.1,70,0.00,,,0.00,WUHU216HW,2013-01-06 00:48:00,
2013-01-05 19:49:00,27.9,19.5,30.24,WNW,293,1.8,1.8,70,0.00,,,0.00,WUHU216HW,2013-01-06 00:49:00,
2013-01-05 19:52:00,27.9,19.5,30.24,WNW,293,0.0,1.8,70,0.00,,,0.00,WUHU216HW,2013-01-06 00:52:00,
2013-01-05 19:53:00,27.9,19.5,30.24,South,180,1.1,1.8,70,0.00,,,0.00,WUHU216HW,2013-01-06 00:53:00,
2013-01-05 19:54:00,28.0,19.8,30.24,SSE,158,1.6,1.8,71,0.00,,,0.00,WUHU216HW,2013-01-06 00:54:00,
2013-01-05 19:57:00,27.8,19.6,30.24,SE,135,0.7,1.8,71,0.00,,,0.00,WUHU216HW,2013-01-06 00:57:00,
2013-01-05 19:58:00,27.8,19.3,30.24,SE,135,0.0,1.8,70,0.00,,,0.00,WUHU216HW,2013-01-06 00:58:00,
2013-01-05 19:59:00,27.6,19.1,30.24,SSW,203,0.4,1.8,70,0.00,,,0.00,WUHU216HW,2013-01-06 00:59:00,
2013-01-05 20:02:00,27.6,19.5,30.24,West,270,0.0,1.8,71,0.00,,,0.00,WUHU216HW,2013-01-06 01:02:00,
2013-01-05 20:03:00,27.6,19.1,30.24,West,270,0.0,1.8,70,0.00,,,0.00,WUHU216HW,2013-01-06 01:03:00,
2013-01-05 20:04:00,27.6,19.1,30.23,West,270,0.4,1.8,70,0.00,,,0.00,WUHU216HW,2013-01-06 01:04:00,
2013-01-05 20:07:00,27.4,19.0,30.23,NNE,23,0.9,1.1,70,0.00,,,0.00,WUHU216HW,2013-01-06 01:07:00,
2013-01-05 20:08:00,27.4,19.0,30.23,NNE,23,1.1,1.1,70,0.00,,,0.00,WUHU216HW,2013-01-06 01:08:00,
2013-01-05 20:09:00,27.4,19.3,30.23,NNE,23,0.4,1.1,71,0.00,,,0.00,WUHU216HW,2013-01-06 01:09:00,
2013-01-05 20:12:00,27.2,19.4,30.23,NNE,23,0.4,1.1,72,0.00,,,0.00,WUHU216HW,2013-01-06 01:12:00,
2013-01-05 20:13:00,27.2,19.4,30.23,NNE,23,0.2,1.1,72,0.00,,,0.00,WUHU216HW,2013-01-06 01:13:00,
2013-01-05 20:14:00,27.2,19.4,30.23,NNE,23,0.0,1.1,72,0.00,,,0.00,WUHU216HW,2013-01-06 01:14:00,
2013-01-05 20:16:00,27.2,19.4,30.23,NNE,23,0.0,0.0,72,0.00,,,0.00,WUHU216HW,2013-01-06 01:16:00,
2013-01-05 20:18:00,27.2,19.4,30.23,NNE,23,0.0,1.1,72,0.00,,,0.00,WUHU216HW,2013-01-06 01:18:00,
2013-01-05 20:19:00,27.2,19.4,30.23,NNE,23,0.0,0.4,72,0.00,,,0.00,WUHU216HW,2013-01-06 01:19:00,
2013-01-05 20:20:00,27.2,19.4,30.23,NNE,23,0.0,0.4,72,0.00,,,0.00,WUHU216HW,2013-01-06 01:20:00,
2013-01-05 20:23:00,27.2,19.4,30.23,NNE,23,0.0,0.2,72,0.00,,,0.00,WUHU216HW,2013-01-06 01:23:00,
2013-01-05 20:24:00,27.2,19.4,30.23,NNE,23,0.0,0.0,72,0.00,,,0.00,WUHU216HW,2013-01-06 01:24:00,
2013-01-05 20:25:00,27.2,19.4,30.23,NNE,23,0.0,0.0,72,0.00,,,0.00,WUHU216HW,2013-01-06 01:25:00,
2013-01-05 20:46:00,26.6,19.2,30.22,NNE,23,0.0,0.0,73,0.00,,,0.00,WUHU216HW,2013-01-06 01:46:00,
2013-01-05 20:51:00,26.7,18.9,30.23,South,180,1.3,1.6,72,0.00,,,0.00,WUHU216HW,2013-01-06 01:51:00,
2013-01-05 20:56:00,26.7,18.9,30.23,SW,225,0.7,2.0,72,0.00,,,0.00,WUHU216HW,2013-01-06 01:56:00,
2013-01-05 20:58:00,26.7,18.9,30.23,SW,225,0.4,2.0,72,0.00,,,0.00,WUHU216HW,2013-01-06 01:58:00,
2013-01-05 21:01:00,26.5,19.4,30.23,SW,225,0.4,2.0,74,0.00,,,0.00,WUHU216HW,2013-01-06 02:01:00,
2013-01-05 21:03:00,26.5,19.1,30.23,SW,225,0.0,2.0,73,0.00,,,0.00,WUHU216HW,2013-01-06 02:03:00,
2013-01-05 21:06:00,26.5,19.4,30.22,SW,225,0.0,0.7,74,0.00,,,0.00,WUHU216HW,2013-01-06 02:06:00,
2013-01-05 21:07:00,26.5,19.4,30.22,SW,225,0.0,0.7,74,0.00,,,0.00,WUHU216HW,2013-01-06 02:07:00,
2013-01-05 21:08:00,26.5,19.1,30.22,SW,225,0.0,0.7,73,0.00,,,0.00,WUHU216HW,2013-01-06 02:08:00,
2013-01-05 21:11:00,26.5,19.4,30.22,SW,225,0.4,0.4,74,0.00,,,0.00,WUHU216HW,2013-01-06 02:11:00,
2013-01-05 21:12:00,26.5,19.4,30.22,SW,225,0.4,0.4,74,0.00,,,0.00,WUHU216HW,2013-01-06 02:12:00,
2013-01-05 21:13:00,26.5,19.4,30.22,SW,225,0.9,0.9,74,0.00,,,0.00,WUHU216HW,2013-01-06 02:13:00,
2013-01-05 21:17:00,26.5,19.4,30.22,WSW,248,0.4,1.1,74,0.00,,,0.00,WUHU216HW,2013-01-06 02:17:00,
2013-01-05 21:18:00,26.4,19.0,30.23,WSW,248,0.7,1.1,73,0.00,,,0.00,WUHU216HW,2013-01-06 02:18:00,
2013-01-05 21:22:00,26.4,19.0,30.22,SW,225,0.0,1.1,73,0.00,,,0.00,WUHU216HW,2013-01-06 02:22:00,
2013-01-05 21:23:00,26.4,19.0,30.22,SW,225,1.1,1.1,73,0.00,,,0.00,WUHU216HW,2013-01-06 02:23:00,
2013-01-05 21:27:00,26.4,19.3,30.22,SW,225,0.0,1.1,74,0.00,,,0.00,WUHU216HW,2013-01-06 02:27:00,
2013-01-05 21:28:00,26.4,19.3,30.23,SW,225,0.0,1.1,74,0.00,,,0.00,WUHU216HW,2013-01-06 02:28:00,
2013-01-05 21:32:00,26.4,19.0,30.23,SW,225,0.4,1.1,73,0.00,,,0.00,WUHU216HW,2013-01-06 02:32:00,
2013-01-05 21:33:00,26.4,19.0,30.22,SW,225,0.4,0.7,73,0.00,,,0.00,WUHU216HW,2013-01-06 02:33:00,
2013-01-05 21:37:00,26.4,19.0,30.22,SW,225,0.0,0.9,73,0.00,,,0.00,WUHU216HW,2013-01-06 02:37:00,
2013-01-05 21:38:00,26.4,19.0,30.22,SW,225,0.0,0.9,73,0.00,,,0.00,WUHU216HW,2013-01-06 02:38:00,
2013-01-05 21:42:00,26.2,19.1,30.22,SW,225,0.0,0.9,74,0.00,,,0.00,WUHU216HW,2013-01-06 02:42:00,
2013-01-05 21:43:00,26.2,19.1,30.22,SW,225,0.0,0.9,74,0.00,,,0.00,WUHU216HW,2013-01-06 02:43:00,
2013-01-05 21:44:00,26.0,18.9,30.22,SW,225,0.0,0.9,74,0.00,,,0.00,WUHU216HW,2013-01-06 02:44:00,
2013-01-05 21:47:00,26.0,19.2,30.22,SW,225,0.0,0.0,75,0.00,,,0.00,WUHU216HW,2013-01-06 02:47:00,
2013-01-05 21:48:00,26.0,19.2,30.22,SW,225,0.0,0.0,75,0.00,,,0.00,WUHU216HW,2013-01-06 02:48:00,
2013-01-05 21:49:00,26.0,19.2,30.22,SW,225,0.0,0.0,75,0.00,,,0.00,WUHU216HW,2013-01-06 02:49:00,
2013-01-05 21:52:00,26.2,19.1,30.21,NNE,23,0.7,0.7,74,0.00,,,0.00,WUHU216HW,2013-01-06 02:52:00,
2013-01-05 21:53:00,26.2,19.1,30.21,NNE,23,0.7,0.7,74,0.00,,,0.00,WUHU216HW,2013-01-06 02:53:00,
2013-01-05 21:54:00,26.2,19.4,30.20,NNE,23,0.4,0.7,75,0.00,,,0.00,WUHU216HW,2013-01-06 02:54:00,
2013-01-05 21:58:00,26.2,19.4,30.21,NE,45,0.4,0.7,75,0.00,,,0.00,WUHU216HW,2013-01-06 02:58:00,
2013-01-05 21:59:00,26.4,19.6,30.21,NNE,23,0.0,0.7,75,0.00,,,0.00,WUHU216HW,2013-01-06 02:59:00,
2013-01-05 22:03:00,26.5,19.7,30.21,NW,315,0.0,0.4,75,0.00,,,0.00,WUHU216HW,2013-01-06 03:03:00,
2013-01-05 22:04:00,26.5,19.7,30.21,NW,315,0.0,0.4,75,0.00,,,0.00,WUHU216HW,2013-01-06 03:04:00,
2013-01-05 22:05:00,26.5,20.0,30.21,NW,315,0.0,0.4,76,0.00,,,0.00,WUHU216HW,2013-01-06 03:05:00,
2013-01-05 22:08:00,26.7,20.2,30.21,WNW,293,0.4,0.4,76,0.00,,,0.00,WUHU216HW,2013-01-06 03:08:00,
2013-01-05 22:09:00,26.7,20.2,30.21,SW,225,0.4,0.4,76,0.00,,,0.00,WUHU216HW,2013-01-06 03:09:00,
2013-01-05 22:10:00,26.7,19.9,30.21,SSW,203,0.4,0.4,75,0.00,,,0.00,WUHU216HW,2013-01-06 03:10:00,
2013-01-05 22:13:00,26.7,19.9,30.21,SE,135,1.1,1.1,75,0.00,,,0.00,WUHU216HW,2013-01-06 03:13:00,
2013-01-05 22:14:00,26.7,19.9,30.21,SE,135,1.1,1.1,75,0.00,,,0.00,WUHU216HW,2013-01-06 03:14:00,
2013-01-05 22:15:00,26.7,20.2,30.21,SSE,158,1.3,1.3,76,0.00,,,0.00,WUHU216HW,2013-01-06 03:15:00,
2013-01-05 22:18:00,26.9,20.1,30.20,WNW,293,1.6,1.6,75,0.00,,,0.00,WUHU216HW,2013-01-06 03:18:00,
2013-01-05 22:19:00,26.9,20.1,30.20,WNW,293,1.6,1.6,75,0.00,,,0.00,WUHU216HW,2013-01-06 03:19:00,
2013-01-05 22:20:00,27.1,20.3,30.21,WNW,293,1.1,1.6,75,0.00,,,0.00,WUHU216HW,2013-01-06 03:20:00,
2013-01-05 22:23:00,27.3,20.5,30.21,East,90,1.6,1.6,75,0.00,,,0.00,WUHU216HW,2013-01-06 03:23:00,
2013-01-05 22:24:00,27.3,20.5,30.21,East,90,1.6,1.6,75,0.00,,,0.00,WUHU216HW,2013-01-06 03:24:00,
2013-01-05 22:25:00,27.4,20.6,30.21,East,90,0.9,1.6,75,0.00,,,0.00,WUHU216HW,2013-01-06 03:25:00,
2013-01-05 22:28:00,27.4,20.6,30.20,SE,135,1.1,1.6,75,0.00,,,0.00,WUHU216HW,2013-01-06 03:28:00,
2013-01-05 22:29:00,27.4,20.6,30.20,SSE,158,1.6,1.6,75,0.00,,,0.00,WUHU216HW,2013-01-06 03:29:00,
2013-01-05 22:30:00,27.4,20.9,30.21,SSE,158,1.1,1.6,76,0.00,,,0.00,WUHU216HW,2013-01-06 03:30:00,
2013-01-05 22:34:00,27.4,20.9,30.20,SSE,158,0.0,1.6,76,0.00,,,0.00,WUHU216HW,2013-01-06 03:34:00,
2013-01-05 22:35:00,27.6,21.1,30.20,SSE,158,0.0,1.6,76,0.00,,,0.00,WUHU216HW,2013-01-06 03:35:00,
2013-01-05 22:36:00,27.6,21.1,30.20,SE,135,0.9,1.6,76,0.00,,,0.00,WUHU216HW,2013-01-06 03:36:00,
2013-01-05 22:39:00,27.8,20.9,30.19,ESE,113,1.3,1.6,75,0.00,,,0.00,WUHU216HW,2013-01-06 03:39:00,
2013-01-05 22:40:00,28.0,21.4,30.19,ESE,113,1.1,1.3,76,0.00,,,0.00,WUHU216HW,2013-01-06 03:40:00,
2013-01-05 22:41:00,28.2,21.6,30.19,ESE,113,1.1,1.3,76,0.00,,,0.00,WUHU216HW,2013-01-06 03:41:00,
2013-01-05 22:44:00,28.5,21.6,30.19,ESE,113,0.4,1.3,75,0.00,,,0.00,WUHU216HW,2013-01-06 03:44:00,
2013-01-05 22:45:00,28.5,21.6,30.19,ESE,113,0.0,1.3,75,0.00,,,0.00,WUHU216HW,2013-01-06 03:45:00,
2013-01-05 22:46:00,28.7,21.8,30.18,ESE,113,0.0,1.3,75,0.00,,,0.00,WUHU216HW,2013-01-06 03:46:00,
2013-01-05 22:49:00,28.7,22.1,30.19,ESE,113,0.0,1.1,76,0.00,,,0.00,WUHU216HW,2013-01-06 03:49:00,
2013-01-05 22:50:00,28.7,22.1,30.19,ESE,113,0.0,1.1,76,0.00,,,0.00,WUHU216HW,2013-01-06 03:50:00,
2013-01-05 22:51:00,28.9,22.3,30.20,ESE,113,0.0,1.1,76,0.00,,,0.00,WUHU216HW,2013-01-06 03:51:00,
2013-01-05 22:54:00,28.7,21.8,30.19,ESE,113,0.0,0.0,75,0.00,,,0.00,WUHU216HW,2013-01-06 03:54:00,
2013-01-05 22:55:00,28.5,21.6,30.20,NNE,23,0.4,0.4,75,0.00,,,0.00,WUHU216HW,2013-01-06 03:55:00,
2013-01-05 22:56:00,28.5,21.6,30.20,North,0,0.4,0.4,75,0.00,,,0.00,WUHU216HW,2013-01-06 03:56:00,
2013-01-05 22:59:00,28.3,21.4,30.20,NW,315,0.0,0.4,75,0.00,,,0.00,WUHU216HW,2013-01-06 03:59:00,
2013-01-05 23:00:00,28.2,21.3,30.20,West,270,1.3,1.3,75,0.00,,,0.00,WUHU216HW,2013-01-06 04:00:00,
2013-01-05 23:01:00,28.2,21.3,30.20,West,270,1.3,1.3,75,0.00,,,0.00,WUHU216HW,2013-01-06 04:01:00,
2013-01-05 23:04:00,28.2,21.6,30.21,SSW,203,0.4,1.6,76,0.00,,,0.00,WUHU216HW,2013-01-06 04:04:00,
2013-01-05 23:05:00,28.2,21.6,30.20,SSW,203,0.2,1.6,76,0.00,,,0.00,WUHU216HW,2013-01-06 04:05:00,
2013-01-05 23:06:00,28.2,21.6,30.20,SSW,203,0.2,1.6,76,0.00,,,0.00,WUHU216HW,2013-01-06 04:06:00,
2013-01-05 23:09:00,28.2,21.6,30.20,WSW,248,0.4,1.6,76,0.00,,,0.00,WUHU216HW,2013-01-06 04:09:00,
2013-01-05 23:10:00,28.2,21.6,30.20,SSW,203,1.1,1.6,76,0.00,,,0.00,WUHU216HW,2013-01-06 04:10:00,
2013-01-05 23:11:00,28.2,21.6,30.20,SSW,203,1.1,1.6,76,0.00,,,0.00,WUHU216HW,2013-01-06 04:11:00,
2013-01-05 23:14:00,28.2,21.6,30.20,South,180,1.3,1.3,76,0.00,,,0.00,WUHU216HW,2013-01-06 04:14:00,
2013-01-05 23:15:00,28.2,21.6,30.20,South,180,2.0,2.0,76,0.00,,,0.00,WUHU216HW,2013-01-06 04:15:00,
2013-01-05 23:16:00,28.2,21.6,30.20,South,180,2.0,2.0,76,0.00,,,0.00,WUHU216HW,2013-01-06 04:16:00,
2013-01-05 23:17:00,28.2,21.3,30.20,South,180,1.6,2.0,75,0.00,,,0.00,WUHU216HW,2013-01-06 04:17:00,
2013-01-05 23:19:00,28.3,21.4,30.19,SSE,158,1.8,2.0,75,0.00,,,0.00,WUHU216HW,2013-01-06 04:19:00,
2013-01-05 23:20:00,28.3,21.4,30.20,South,180,1.1,2.0,75,0.00,,,0.00,WUHU216HW,2013-01-06 04:20:00,
2013-01-05 23:21:00,28.3,21.4,30.20,South,180,1.1,2.0,75,0.00,,,0.00,WUHU216HW,2013-01-06 04:21:00,
2013-01-05 23:22:00,28.3,21.4,30.20,SSW,203,1.1,2.0,75,0.00,,,0.00,WUHU216HW,2013-01-06 04:22:00,
2013-01-05 23:24:00,28.5,21.6,30.19,SSW,203,0.9,2.0,75,0.00,,,0.00,WUHU216HW,2013-01-06 04:24:00,
2013-01-05 23:25:00,28.5,21.6,30.19,South,180,2.0,2.0,75,0.00,,,0.00,WUHU216HW,2013-01-06 04:25:00,
2013-01-05 23:26:00,28.5,21.6,30.19,South,180,2.0,2.0,75,0.00,,,0.00,WUHU216HW,2013-01-06 04:26:00,
2013-01-05 23:27:00,28.5,21.6,30.19,South,180,2.0,2.0,75,0.00,,,0.00,WUHU216HW,2013-01-06 04:27:00,
2013-01-05 23:30:00,28.5,21.6,30.19,SSW,203,0.7,2.0,75,0.00,,,0.00,WUHU216HW,2013-01-06 04:30:00,
2013-01-05 23:31:00,28.5,21.6,30.19,SSW,203,0.4,2.0,75,0.00,,,0.00,WUHU216HW,2013-01-06 04:31:00,
2013-01-05 23:32:00,28.7,21.8,30.19,SSW,203,0.0,2.0,75,0.00,,,0.00,WUHU216HW,2013-01-06 04:32:00,
2013-01-05 23:35:00,28.7,21.8,30.19,SSW,203,0.7,2.0,75,0.00,,,0.00,WUHU216HW,2013-01-06 04:35:00,
2013-01-05 23:36:00,28.9,22.0,30.19,SSW,203,0.4,2.0,75,0.00,,,0.00,WUHU216HW,2013-01-06 04:36:00,
2013-01-05 23:37:00,28.7,21.8,30.19,SSW,203,0.4,1.1,75,0.00,,,0.00,WUHU216HW,2013-01-06 04:37:00,
2013-01-05 23:40:00,28.9,22.0,30.18,SSW,203,0.0,0.7,75,0.00,,,0.00,WUHU216HW,2013-01-06 04:40:00,
2013-01-05 23:41:00,28.9,22.0,30.18,SSW,203,0.0,0.7,75,0.00,,,0.00,WUHU216HW,2013-01-06 04:41:00,
2013-01-05 23:42:00,28.9,22.0,30.19,SSW,203,0.9,0.9,75,0.00,,,0.00,WUHU216HW,2013-01-06 04:42:00,
2013-01-05 23:45:00,28.9,22.0,30.18,SSW,203,1.3,1.3,75,0.00,,,0.00,WUHU216HW,2013-01-06 04:45:00,
2013-01-05 23:46:00,28.9,22.0,30.18,SSW,203,0.4,1.3,75,0.00,,,0.00,WUHU216HW,2013-01-06 04:46:00,
2013-01-05 23:47:00,28.9,22.0,30.18,SSW,203,0.7,1.3,75,0.00,,,0.00,WUHU216HW,2013-01-06 04:47:00,
2013-01-05 23:50:00,28.9,22.3,30.18,South,180,1.1,1.3,76,0.00,,,0.00,WUHU216HW,2013-01-06 04:50:00,
2013-01-05 23:51:00,28.9,22.3,30.18,SSE,158,0.9,1.3,76,0.00,,,0.00,WUHU216HW,2013-01-06 04:51:00,
2013-01-05 23:52:00,28.9,22.3,30.17,South,180,0.9,1.3,76,0.00,,,0.00,WUHU216HW,2013-01-06 04:52:00,
2013-01-05 23:55:00,28.9,22.3,30.18,SSE,158,0.4,1.1,76,0.00,,,0.00,WUHU216HW,2013-01-06 04:55:00,
2013-01-05 23:56:00,28.9,22.3,30.18,SSE,158,0.0,1.1,76,0.00,,,0.00,WUHU216HW,2013-01-06 04:56:00,
2013-01-05 23:57:00,28.9,22.3,30.18,SSE,158,0.0,1.1,76,0.00,,,0.00,WUHU216HW,2013-01-06 04:57:00,